<?xml version="1.0" encoding="UTF-8" standalone="no" ?>
<gpx xmlns="http://www.topografix.com/GPX/1/1" xmlns:xsi="http://www.w3.org/2001/XMLSchema-instance" xsi:schemaLocation="http://www.topografix.com/GPX/1/1 http://www.topografix.com/GPX/1/1/gpx.xsd" version="1.1" creator="VisuGPX - https://www.visugpx.com">
  <metadata>
    <name>Néoules Barre de Cuers</name>
    <desc><![CDATA[Rando facile sans difficulté.]]></desc>
  </metadata>
  <trk>
    <name><![CDATA[Néoules Barre de Cuers_1]]></name>
    <trkseg>
      <trkpt lat="43.30772" lon="6.01408">
        <ele>334.2</ele>
        <time>2015-01-07T08:06:13Z</time>
      </trkpt>
      <trkpt lat="43.30771" lon="6.01409">
        <ele>334</ele>
        <time>2015-01-07T08:06:14Z</time>
      </trkpt>
      <trkpt lat="43.30741" lon="6.01429">
        <ele>330.3</ele>
        <time>2015-01-07T08:06:48Z</time>
      </trkpt>
      <trkpt lat="43.30725" lon="6.0144">
        <ele>332.2</ele>
        <time>2015-01-07T08:07:02Z</time>
      </trkpt>
      <trkpt lat="43.3071" lon="6.01451">
        <ele>330.2</ele>
        <time>2015-01-07T08:07:17Z</time>
      </trkpt>
      <trkpt lat="43.30709" lon="6.01451">
        <ele>330</ele>
        <time>2015-01-07T08:07:18Z</time>
      </trkpt>
      <trkpt lat="43.30677" lon="6.01468">
        <ele>331.6</ele>
        <time>2015-01-07T08:07:47Z</time>
      </trkpt>
      <trkpt lat="43.30661" lon="6.01477">
        <ele>334.6</ele>
        <time>2015-01-07T08:08:00Z</time>
      </trkpt>
      <trkpt lat="43.30645" lon="6.01487">
        <ele>334.6</ele>
        <time>2015-01-07T08:08:14Z</time>
      </trkpt>
      <trkpt lat="43.30631" lon="6.015">
        <ele>334.2</ele>
        <time>2015-01-07T08:08:28Z</time>
      </trkpt>
      <trkpt lat="43.30629" lon="6.015">
        <ele>334.2</ele>
        <time>2015-01-07T08:08:29Z</time>
      </trkpt>
      <trkpt lat="43.30601" lon="6.01516">
        <ele>342.7</ele>
        <time>2015-01-07T08:08:50Z</time>
      </trkpt>
      <trkpt lat="43.30583" lon="6.01522">
        <ele>343.3</ele>
        <time>2015-01-07T08:09:06Z</time>
      </trkpt>
      <trkpt lat="43.30567" lon="6.01528">
        <ele>344.7</ele>
        <time>2015-01-07T08:09:18Z</time>
      </trkpt>
      <trkpt lat="43.3055" lon="6.01536">
        <ele>346.3</ele>
        <time>2015-01-07T08:09:32Z</time>
      </trkpt>
      <trkpt lat="43.3055" lon="6.01537">
        <ele>346.6</ele>
        <time>2015-01-07T08:09:33Z</time>
      </trkpt>
      <trkpt lat="43.30527" lon="6.01572">
        <ele>344</ele>
        <time>2015-01-07T08:10:05Z</time>
      </trkpt>
      <trkpt lat="43.30516" lon="6.0159">
        <ele>348</ele>
        <time>2015-01-07T08:10:19Z</time>
      </trkpt>
      <trkpt lat="43.30503" lon="6.01605">
        <ele>350.6</ele>
        <time>2015-01-07T08:10:34Z</time>
      </trkpt>
      <trkpt lat="43.30502" lon="6.01606">
        <ele>350.5</ele>
        <time>2015-01-07T08:10:35Z</time>
      </trkpt>
      <trkpt lat="43.30479" lon="6.0164">
        <ele>353.2</ele>
        <time>2015-01-07T08:11:10Z</time>
      </trkpt>
      <trkpt lat="43.30469" lon="6.01659">
        <ele>353.2</ele>
        <time>2015-01-07T08:11:27Z</time>
      </trkpt>
      <trkpt lat="43.30457" lon="6.01677">
        <ele>355</ele>
        <time>2015-01-07T08:11:42Z</time>
      </trkpt>
      <trkpt lat="43.30456" lon="6.01677">
        <ele>354.8</ele>
        <time>2015-01-07T08:11:43Z</time>
      </trkpt>
      <trkpt lat="43.30433" lon="6.01709">
        <ele>356.2</ele>
        <time>2015-01-07T08:12:19Z</time>
      </trkpt>
      <trkpt lat="43.30419" lon="6.01724">
        <ele>364.1</ele>
        <time>2015-01-07T08:12:37Z</time>
      </trkpt>
      <trkpt lat="43.30408" lon="6.01743">
        <ele>369.5</ele>
        <time>2015-01-07T08:13:01Z</time>
      </trkpt>
      <trkpt lat="43.30407" lon="6.01743">
        <ele>370</ele>
        <time>2015-01-07T08:13:02Z</time>
      </trkpt>
      <trkpt lat="43.30391" lon="6.01785">
        <ele>371.8</ele>
        <time>2015-01-07T08:13:56Z</time>
      </trkpt>
      <trkpt lat="43.30379" lon="6.01803">
        <ele>370.7</ele>
        <time>2015-01-07T08:14:25Z</time>
      </trkpt>
      <trkpt lat="43.30379" lon="6.01804">
        <ele>370.7</ele>
        <time>2015-01-07T08:14:26Z</time>
      </trkpt>
      <trkpt lat="43.30361" lon="6.01845">
        <ele>378</ele>
        <time>2015-01-07T08:15:12Z</time>
      </trkpt>
      <trkpt lat="43.3035" lon="6.01863">
        <ele>378.6</ele>
        <time>2015-01-07T08:15:37Z</time>
      </trkpt>
      <trkpt lat="43.3035" lon="6.01864">
        <ele>379.8</ele>
        <time>2015-01-07T08:15:38Z</time>
      </trkpt>
      <trkpt lat="43.3032" lon="6.0189">
        <ele>385.3</ele>
        <time>2015-01-07T08:16:44Z</time>
      </trkpt>
      <trkpt lat="43.3032" lon="6.0189">
        <ele>385.3</ele>
        <time>2015-01-07T08:16:45Z</time>
      </trkpt>
      <trkpt lat="43.30303" lon="6.01896">
        <ele>396.6</ele>
        <time>2015-01-07T08:17:48Z</time>
      </trkpt>
      <trkpt lat="43.30285" lon="6.01902">
        <ele>392.1</ele>
        <time>2015-01-07T08:19:01Z</time>
      </trkpt>
      <trkpt lat="43.3025" lon="6.01909">
        <ele>397.5</ele>
        <time>2015-01-07T08:19:58Z</time>
      </trkpt>
      <trkpt lat="43.30234" lon="6.01898">
        <ele>402.1</ele>
        <time>2015-01-07T08:20:23Z</time>
      </trkpt>
      <trkpt lat="43.30234" lon="6.01899">
        <ele>402.2</ele>
        <time>2015-01-07T08:20:24Z</time>
      </trkpt>
      <trkpt lat="43.30228" lon="6.01945">
        <ele>407.2</ele>
        <time>2015-01-07T08:21:10Z</time>
      </trkpt>
      <trkpt lat="43.30216" lon="6.01963">
        <ele>408.2</ele>
        <time>2015-01-07T08:21:28Z</time>
      </trkpt>
      <trkpt lat="43.30216" lon="6.01964">
        <ele>408.3</ele>
        <time>2015-01-07T08:21:29Z</time>
      </trkpt>
      <trkpt lat="43.30196" lon="6.02001">
        <ele>411.7</ele>
        <time>2015-01-07T08:22:00Z</time>
      </trkpt>
      <trkpt lat="43.30193" lon="6.02024">
        <ele>414.2</ele>
        <time>2015-01-07T08:22:17Z</time>
      </trkpt>
      <trkpt lat="43.30192" lon="6.02048">
        <ele>416.7</ele>
        <time>2015-01-07T08:22:34Z</time>
      </trkpt>
      <trkpt lat="43.30192" lon="6.02049">
        <ele>416.7</ele>
        <time>2015-01-07T08:22:35Z</time>
      </trkpt>
      <trkpt lat="43.30186" lon="6.02095">
        <ele>417.7</ele>
        <time>2015-01-07T08:23:07Z</time>
      </trkpt>
      <trkpt lat="43.3018" lon="6.02118">
        <ele>420.6</ele>
        <time>2015-01-07T08:23:23Z</time>
      </trkpt>
      <trkpt lat="43.30169" lon="6.02137">
        <ele>422.8</ele>
        <time>2015-01-07T08:23:40Z</time>
      </trkpt>
      <trkpt lat="43.30169" lon="6.02138">
        <ele>422.8</ele>
        <time>2015-01-07T08:23:41Z</time>
      </trkpt>
      <trkpt lat="43.30145" lon="6.02171">
        <ele>426</ele>
        <time>2015-01-07T08:24:30Z</time>
      </trkpt>
      <trkpt lat="43.30134" lon="6.0219">
        <ele>428.7</ele>
        <time>2015-01-07T08:24:47Z</time>
      </trkpt>
      <trkpt lat="43.30133" lon="6.02191">
        <ele>429</ele>
        <time>2015-01-07T08:24:48Z</time>
      </trkpt>
      <trkpt lat="43.30112" lon="6.02227">
        <ele>430.6</ele>
        <time>2015-01-07T08:25:24Z</time>
      </trkpt>
      <trkpt lat="43.301" lon="6.02246">
        <ele>431.7</ele>
        <time>2015-01-07T08:25:40Z</time>
      </trkpt>
      <trkpt lat="43.30089" lon="6.02265">
        <ele>433.7</ele>
        <time>2015-01-07T08:25:55Z</time>
      </trkpt>
      <trkpt lat="43.30088" lon="6.02267">
        <ele>433.8</ele>
        <time>2015-01-07T08:25:56Z</time>
      </trkpt>
      <trkpt lat="43.30089" lon="6.02308">
        <ele>439.6</ele>
        <time>2015-01-07T08:26:28Z</time>
      </trkpt>
      <trkpt lat="43.30106" lon="6.02316">
        <ele>441.2</ele>
        <time>2015-01-07T08:26:46Z</time>
      </trkpt>
      <trkpt lat="43.30098" lon="6.02338">
        <ele>440.5</ele>
        <time>2015-01-07T08:27:09Z</time>
      </trkpt>
      <trkpt lat="43.30097" lon="6.02339">
        <ele>440.3</ele>
        <time>2015-01-07T08:27:10Z</time>
      </trkpt>
      <trkpt lat="43.30067" lon="6.02357">
        <ele>441.7</ele>
        <time>2015-01-07T08:27:41Z</time>
      </trkpt>
      <trkpt lat="43.3005" lon="6.02366">
        <ele>444</ele>
        <time>2015-01-07T08:27:58Z</time>
      </trkpt>
      <trkpt lat="43.30034" lon="6.02376">
        <ele>446.3</ele>
        <time>2015-01-07T08:28:15Z</time>
      </trkpt>
      <trkpt lat="43.30033" lon="6.02377">
        <ele>446.5</ele>
        <time>2015-01-07T08:28:16Z</time>
      </trkpt>
      <trkpt lat="43.30002" lon="6.02392">
        <ele>449.8</ele>
        <time>2015-01-07T08:28:47Z</time>
      </trkpt>
      <trkpt lat="43.29985" lon="6.02396">
        <ele>451.2</ele>
        <time>2015-01-07T08:29:03Z</time>
      </trkpt>
      <trkpt lat="43.29969" lon="6.02403">
        <ele>451.3</ele>
        <time>2015-01-07T08:29:20Z</time>
      </trkpt>
      <trkpt lat="43.29968" lon="6.02403">
        <ele>451.7</ele>
        <time>2015-01-07T08:29:21Z</time>
      </trkpt>
      <trkpt lat="43.29945" lon="6.02436">
        <ele>453.2</ele>
        <time>2015-01-07T08:29:53Z</time>
      </trkpt>
      <trkpt lat="43.29936" lon="6.02457">
        <ele>454.2</ele>
        <time>2015-01-07T08:30:12Z</time>
      </trkpt>
      <trkpt lat="43.29925" lon="6.02477">
        <ele>456.1</ele>
        <time>2015-01-07T08:31:29Z</time>
      </trkpt>
      <trkpt lat="43.29925" lon="6.02477">
        <ele>456.1</ele>
        <time>2015-01-07T08:31:30Z</time>
      </trkpt>
      <trkpt lat="43.29912" lon="6.02494">
        <ele>459.2</ele>
        <time>2015-01-07T08:37:19Z</time>
      </trkpt>
      <trkpt lat="43.29882" lon="6.02517">
        <ele>459.8</ele>
        <time>2015-01-07T08:37:53Z</time>
      </trkpt>
      <trkpt lat="43.29865" lon="6.02522">
        <ele>459.7</ele>
        <time>2015-01-07T08:38:09Z</time>
      </trkpt>
      <trkpt lat="43.29847" lon="6.02524">
        <ele>460.3</ele>
        <time>2015-01-07T08:38:26Z</time>
      </trkpt>
      <trkpt lat="43.29846" lon="6.02524">
        <ele>460.3</ele>
        <time>2015-01-07T08:38:27Z</time>
      </trkpt>
      <trkpt lat="43.29813" lon="6.02524">
        <ele>458.1</ele>
        <time>2015-01-07T08:38:59Z</time>
      </trkpt>
      <trkpt lat="43.29796" lon="6.02523">
        <ele>457.1</ele>
        <time>2015-01-07T08:39:14Z</time>
      </trkpt>
      <trkpt lat="43.29778" lon="6.02522">
        <ele>460.6</ele>
        <time>2015-01-07T08:39:28Z</time>
      </trkpt>
      <trkpt lat="43.29777" lon="6.02522">
        <ele>461.3</ele>
        <time>2015-01-07T08:39:29Z</time>
      </trkpt>
      <trkpt lat="43.29744" lon="6.02517">
        <ele>464.6</ele>
        <time>2015-01-07T08:39:57Z</time>
      </trkpt>
      <trkpt lat="43.29728" lon="6.02507">
        <ele>466.7</ele>
        <time>2015-01-07T08:40:12Z</time>
      </trkpt>
      <trkpt lat="43.29716" lon="6.0249">
        <ele>469.1</ele>
        <time>2015-01-07T08:40:27Z</time>
      </trkpt>
      <trkpt lat="43.29704" lon="6.02473">
        <ele>470.5</ele>
        <time>2015-01-07T08:40:42Z</time>
      </trkpt>
      <trkpt lat="43.29703" lon="6.02472">
        <ele>470.7</ele>
        <time>2015-01-07T08:40:43Z</time>
      </trkpt>
      <trkpt lat="43.29678" lon="6.02441">
        <ele>473.8</ele>
        <time>2015-01-07T08:41:12Z</time>
      </trkpt>
      <trkpt lat="43.29663" lon="6.02427">
        <ele>474.3</ele>
        <time>2015-01-07T08:41:27Z</time>
      </trkpt>
      <trkpt lat="43.29649" lon="6.02413">
        <ele>474.8</ele>
        <time>2015-01-07T08:41:42Z</time>
      </trkpt>
      <trkpt lat="43.29635" lon="6.02399">
        <ele>475.3</ele>
        <time>2015-01-07T08:41:56Z</time>
      </trkpt>
      <trkpt lat="43.29634" lon="6.02398">
        <ele>475.5</ele>
        <time>2015-01-07T08:41:57Z</time>
      </trkpt>
      <trkpt lat="43.29617" lon="6.02359">
        <ele>477.6</ele>
        <time>2015-01-07T08:42:26Z</time>
      </trkpt>
      <trkpt lat="43.29612" lon="6.02335">
        <ele>478</ele>
        <time>2015-01-07T08:42:42Z</time>
      </trkpt>
      <trkpt lat="43.29606" lon="6.02313">
        <ele>476.2</ele>
        <time>2015-01-07T08:42:58Z</time>
      </trkpt>
      <trkpt lat="43.29605" lon="6.02311">
        <ele>476.1</ele>
        <time>2015-01-07T08:42:59Z</time>
      </trkpt>
      <trkpt lat="43.29588" lon="6.02271">
        <ele>480.2</ele>
        <time>2015-01-07T08:43:28Z</time>
      </trkpt>
      <trkpt lat="43.29576" lon="6.02255">
        <ele>482.2</ele>
        <time>2015-01-07T08:43:43Z</time>
      </trkpt>
      <trkpt lat="43.29561" lon="6.02242">
        <ele>482.2</ele>
        <time>2015-01-07T08:43:59Z</time>
      </trkpt>
      <trkpt lat="43.2956" lon="6.02242">
        <ele>482.3</ele>
        <time>2015-01-07T08:44:00Z</time>
      </trkpt>
      <trkpt lat="43.29527" lon="6.02229">
        <ele>476.2</ele>
        <time>2015-01-07T08:44:32Z</time>
      </trkpt>
      <trkpt lat="43.2951" lon="6.02227">
        <ele>472.7</ele>
        <time>2015-01-07T08:44:49Z</time>
      </trkpt>
      <trkpt lat="43.29492" lon="6.02226">
        <ele>469.5</ele>
        <time>2015-01-07T08:45:08Z</time>
      </trkpt>
      <trkpt lat="43.29491" lon="6.02226">
        <ele>469.5</ele>
        <time>2015-01-07T08:45:09Z</time>
      </trkpt>
      <trkpt lat="43.29458" lon="6.0223">
        <ele>487.3</ele>
        <time>2015-01-07T08:45:33Z</time>
      </trkpt>
      <trkpt lat="43.29441" lon="6.02238">
        <ele>491.5</ele>
        <time>2015-01-07T08:45:48Z</time>
      </trkpt>
      <trkpt lat="43.29424" lon="6.02247">
        <ele>496.5</ele>
        <time>2015-01-07T08:46:13Z</time>
      </trkpt>
      <trkpt lat="43.29423" lon="6.02247">
        <ele>496.5</ele>
        <time>2015-01-07T08:46:14Z</time>
      </trkpt>
      <trkpt lat="43.2939" lon="6.02256">
        <ele>494.7</ele>
        <time>2015-01-07T08:46:45Z</time>
      </trkpt>
      <trkpt lat="43.29373" lon="6.02261">
        <ele>496.7</ele>
        <time>2015-01-07T08:47:01Z</time>
      </trkpt>
      <trkpt lat="43.29356" lon="6.02264">
        <ele>494.2</ele>
        <time>2015-01-07T08:47:18Z</time>
      </trkpt>
      <trkpt lat="43.29355" lon="6.02264">
        <ele>494.7</ele>
        <time>2015-01-07T08:47:19Z</time>
      </trkpt>
      <trkpt lat="43.29321" lon="6.02269">
        <ele>504</ele>
        <time>2015-01-07T08:47:49Z</time>
      </trkpt>
      <trkpt lat="43.29303" lon="6.02269">
        <ele>503.1</ele>
        <time>2015-01-07T08:48:06Z</time>
      </trkpt>
      <trkpt lat="43.29285" lon="6.02267">
        <ele>503.1</ele>
        <time>2015-01-07T08:48:26Z</time>
      </trkpt>
      <trkpt lat="43.29284" lon="6.02267">
        <ele>503.1</ele>
        <time>2015-01-07T08:48:27Z</time>
      </trkpt>
      <trkpt lat="43.29251" lon="6.0226">
        <ele>508.2</ele>
        <time>2015-01-07T08:49:06Z</time>
      </trkpt>
      <trkpt lat="43.29234" lon="6.02251">
        <ele>521.4</ele>
        <time>2015-01-07T08:53:50Z</time>
      </trkpt>
      <trkpt lat="43.29234" lon="6.02251">
        <ele>521.4</ele>
        <time>2015-01-07T08:53:51Z</time>
      </trkpt>
      <trkpt lat="43.29216" lon="6.02251">
        <ele>515.2</ele>
        <time>2015-01-07T09:00:14Z</time>
      </trkpt>
      <trkpt lat="43.29182" lon="6.02253">
        <ele>506.1</ele>
        <time>2015-01-07T09:00:49Z</time>
      </trkpt>
      <trkpt lat="43.29168" lon="6.02239">
        <ele>508.2</ele>
        <time>2015-01-07T09:01:02Z</time>
      </trkpt>
      <trkpt lat="43.29156" lon="6.02223">
        <ele>508.7</ele>
        <time>2015-01-07T09:01:15Z</time>
      </trkpt>
      <trkpt lat="43.29155" lon="6.02222">
        <ele>508.7</ele>
        <time>2015-01-07T09:01:16Z</time>
      </trkpt>
      <trkpt lat="43.29126" lon="6.02199">
        <ele>507.2</ele>
        <time>2015-01-07T09:01:44Z</time>
      </trkpt>
      <trkpt lat="43.29111" lon="6.02188">
        <ele>506.8</ele>
        <time>2015-01-07T09:01:59Z</time>
      </trkpt>
      <trkpt lat="43.29098" lon="6.02172">
        <ele>505.1</ele>
        <time>2015-01-07T09:02:13Z</time>
      </trkpt>
      <trkpt lat="43.29085" lon="6.02155">
        <ele>504.1</ele>
        <time>2015-01-07T09:02:27Z</time>
      </trkpt>
      <trkpt lat="43.29084" lon="6.02154">
        <ele>503.8</ele>
        <time>2015-01-07T09:02:28Z</time>
      </trkpt>
      <trkpt lat="43.29056" lon="6.02128">
        <ele>500.1</ele>
        <time>2015-01-07T09:02:57Z</time>
      </trkpt>
      <trkpt lat="43.29041" lon="6.02114">
        <ele>497.7</ele>
        <time>2015-01-07T09:03:11Z</time>
      </trkpt>
      <trkpt lat="43.29028" lon="6.02099">
        <ele>496.3</ele>
        <time>2015-01-07T09:03:25Z</time>
      </trkpt>
      <trkpt lat="43.29012" lon="6.02088">
        <ele>492.1</ele>
        <time>2015-01-07T09:03:44Z</time>
      </trkpt>
      <trkpt lat="43.29011" lon="6.02087">
        <ele>491.7</ele>
        <time>2015-01-07T09:03:45Z</time>
      </trkpt>
      <trkpt lat="43.2898" lon="6.02068">
        <ele>488.7</ele>
        <time>2015-01-07T09:04:13Z</time>
      </trkpt>
      <trkpt lat="43.28964" lon="6.02056">
        <ele>487.7</ele>
        <time>2015-01-07T09:04:27Z</time>
      </trkpt>
      <trkpt lat="43.28947" lon="6.02049">
        <ele>486.8</ele>
        <time>2015-01-07T09:04:43Z</time>
      </trkpt>
      <trkpt lat="43.28934" lon="6.02033">
        <ele>488.1</ele>
        <time>2015-01-07T09:04:56Z</time>
      </trkpt>
      <trkpt lat="43.28933" lon="6.02031">
        <ele>488</ele>
        <time>2015-01-07T09:04:57Z</time>
      </trkpt>
      <trkpt lat="43.28904" lon="6.02027">
        <ele>487</ele>
        <time>2015-01-07T09:05:26Z</time>
      </trkpt>
      <trkpt lat="43.28887" lon="6.02021">
        <ele>488.8</ele>
        <time>2015-01-07T09:05:39Z</time>
      </trkpt>
      <trkpt lat="43.28871" lon="6.02013">
        <ele>489.2</ele>
        <time>2015-01-07T09:05:52Z</time>
      </trkpt>
      <trkpt lat="43.28858" lon="6.01998">
        <ele>485.7</ele>
        <time>2015-01-07T09:06:05Z</time>
      </trkpt>
      <trkpt lat="43.28857" lon="6.01997">
        <ele>486.2</ele>
        <time>2015-01-07T09:06:06Z</time>
      </trkpt>
      <trkpt lat="43.28834" lon="6.01963">
        <ele>486.7</ele>
        <time>2015-01-07T09:06:32Z</time>
      </trkpt>
      <trkpt lat="43.28824" lon="6.01945">
        <ele>485.5</ele>
        <time>2015-01-07T09:06:46Z</time>
      </trkpt>
      <trkpt lat="43.28815" lon="6.01926">
        <ele>484</ele>
        <time>2015-01-07T09:07:00Z</time>
      </trkpt>
      <trkpt lat="43.28804" lon="6.01906">
        <ele>483.7</ele>
        <time>2015-01-07T09:07:14Z</time>
      </trkpt>
      <trkpt lat="43.28803" lon="6.01905">
        <ele>483.3</ele>
        <time>2015-01-07T09:07:15Z</time>
      </trkpt>
      <trkpt lat="43.28778" lon="6.01875">
        <ele>481.3</ele>
        <time>2015-01-07T09:07:44Z</time>
      </trkpt>
      <trkpt lat="43.28762" lon="6.01865">
        <ele>482</ele>
        <time>2015-01-07T09:07:59Z</time>
      </trkpt>
      <trkpt lat="43.28746" lon="6.0186">
        <ele>481.3</ele>
        <time>2015-01-07T09:08:15Z</time>
      </trkpt>
      <trkpt lat="43.28745" lon="6.0186">
        <ele>481.2</ele>
        <time>2015-01-07T09:08:16Z</time>
      </trkpt>
      <trkpt lat="43.28711" lon="6.01851">
        <ele>482</ele>
        <time>2015-01-07T09:08:47Z</time>
      </trkpt>
      <trkpt lat="43.28694" lon="6.01846">
        <ele>485.7</ele>
        <time>2015-01-07T09:09:02Z</time>
      </trkpt>
      <trkpt lat="43.2868" lon="6.01831">
        <ele>488.2</ele>
        <time>2015-01-07T09:11:26Z</time>
      </trkpt>
      <trkpt lat="43.28679" lon="6.0183">
        <ele>487.7</ele>
        <time>2015-01-07T09:11:27Z</time>
      </trkpt>
      <trkpt lat="43.28647" lon="6.01815">
        <ele>480.1</ele>
        <time>2015-01-07T09:12:05Z</time>
      </trkpt>
      <trkpt lat="43.28631" lon="6.01806">
        <ele>481.8</ele>
        <time>2015-01-07T09:12:21Z</time>
      </trkpt>
      <trkpt lat="43.28617" lon="6.01791">
        <ele>485.2</ele>
        <time>2015-01-07T09:12:45Z</time>
      </trkpt>
      <trkpt lat="43.28617" lon="6.0179">
        <ele>485.6</ele>
        <time>2015-01-07T09:12:46Z</time>
      </trkpt>
      <trkpt lat="43.2859" lon="6.0176">
        <ele>484.3</ele>
        <time>2015-01-07T09:13:24Z</time>
      </trkpt>
      <trkpt lat="43.28577" lon="6.01744">
        <ele>484.7</ele>
        <time>2015-01-07T09:13:37Z</time>
      </trkpt>
      <trkpt lat="43.28564" lon="6.01728">
        <ele>483.7</ele>
        <time>2015-01-07T09:13:50Z</time>
      </trkpt>
      <trkpt lat="43.28564" lon="6.01727">
        <ele>483.6</ele>
        <time>2015-01-07T09:13:51Z</time>
      </trkpt>
      <trkpt lat="43.28538" lon="6.01697">
        <ele>481.7</ele>
        <time>2015-01-07T09:14:19Z</time>
      </trkpt>
      <trkpt lat="43.28521" lon="6.01689">
        <ele>476.6</ele>
        <time>2015-01-07T09:14:36Z</time>
      </trkpt>
      <trkpt lat="43.28508" lon="6.01674">
        <ele>476.8</ele>
        <time>2015-01-07T09:14:50Z</time>
      </trkpt>
      <trkpt lat="43.28495" lon="6.01657">
        <ele>477.7</ele>
        <time>2015-01-07T09:15:05Z</time>
      </trkpt>
      <trkpt lat="43.28494" lon="6.01656">
        <ele>477.6</ele>
        <time>2015-01-07T09:15:06Z</time>
      </trkpt>
      <trkpt lat="43.28462" lon="6.01636">
        <ele>472.2</ele>
        <time>2015-01-07T09:15:39Z</time>
      </trkpt>
      <trkpt lat="43.28449" lon="6.0162">
        <ele>475.1</ele>
        <time>2015-01-07T09:15:54Z</time>
      </trkpt>
      <trkpt lat="43.28437" lon="6.01603">
        <ele>474.7</ele>
        <time>2015-01-07T09:16:08Z</time>
      </trkpt>
      <trkpt lat="43.28436" lon="6.01602">
        <ele>474.7</ele>
        <time>2015-01-07T09:16:09Z</time>
      </trkpt>
      <trkpt lat="43.28406" lon="6.01581">
        <ele>474.2</ele>
        <time>2015-01-07T09:17:14Z</time>
      </trkpt>
      <trkpt lat="43.28405" lon="6.01581">
        <ele>474.1</ele>
        <time>2015-01-07T09:17:15Z</time>
      </trkpt>
      <trkpt lat="43.28373" lon="6.01564">
        <ele>477.6</ele>
        <time>2015-01-07T09:17:49Z</time>
      </trkpt>
      <trkpt lat="43.28357" lon="6.01555">
        <ele>478.3</ele>
        <time>2015-01-07T09:18:05Z</time>
      </trkpt>
      <trkpt lat="43.28343" lon="6.0154">
        <ele>478.5</ele>
        <time>2015-01-07T09:18:20Z</time>
      </trkpt>
      <trkpt lat="43.28342" lon="6.01538">
        <ele>478.5</ele>
        <time>2015-01-07T09:18:21Z</time>
      </trkpt>
      <trkpt lat="43.28312" lon="6.01523">
        <ele>474.2</ele>
        <time>2015-01-07T09:19:00Z</time>
      </trkpt>
      <trkpt lat="43.28296" lon="6.01516">
        <ele>475.7</ele>
        <time>2015-01-07T09:19:12Z</time>
      </trkpt>
      <trkpt lat="43.2828" lon="6.01509">
        <ele>476.3</ele>
        <time>2015-01-07T09:19:25Z</time>
      </trkpt>
      <trkpt lat="43.28278" lon="6.01508">
        <ele>476.6</ele>
        <time>2015-01-07T09:19:26Z</time>
      </trkpt>
      <trkpt lat="43.28247" lon="6.0149">
        <ele>479.8</ele>
        <time>2015-01-07T09:19:54Z</time>
      </trkpt>
      <trkpt lat="43.2823" lon="6.01481">
        <ele>479.3</ele>
        <time>2015-01-07T09:20:11Z</time>
      </trkpt>
      <trkpt lat="43.28214" lon="6.01473">
        <ele>479</ele>
        <time>2015-01-07T09:20:27Z</time>
      </trkpt>
      <trkpt lat="43.28213" lon="6.01472">
        <ele>479.1</ele>
        <time>2015-01-07T09:20:28Z</time>
      </trkpt>
      <trkpt lat="43.28183" lon="6.01453">
        <ele>482.7</ele>
        <time>2015-01-07T09:20:56Z</time>
      </trkpt>
      <trkpt lat="43.28165" lon="6.01448">
        <ele>487.5</ele>
        <time>2015-01-07T09:22:09Z</time>
      </trkpt>
      <trkpt lat="43.28165" lon="6.01448">
        <ele>487.7</ele>
        <time>2015-01-07T09:22:10Z</time>
      </trkpt>
      <trkpt lat="43.28159" lon="6.01495">
        <ele>481.2</ele>
        <time>2015-01-07T09:23:02Z</time>
      </trkpt>
      <trkpt lat="43.28161" lon="6.01519">
        <ele>479</ele>
        <time>2015-01-07T09:23:24Z</time>
      </trkpt>
      <trkpt lat="43.28161" lon="6.0152">
        <ele>479</ele>
        <time>2015-01-07T09:23:25Z</time>
      </trkpt>
      <trkpt lat="43.28174" lon="6.01564">
        <ele>492.8</ele>
        <time>2015-01-07T09:24:09Z</time>
      </trkpt>
      <trkpt lat="43.28168" lon="6.01588">
        <ele>499.2</ele>
        <time>2015-01-07T09:24:32Z</time>
      </trkpt>
      <trkpt lat="43.28168" lon="6.01588">
        <ele>499</ele>
        <time>2015-01-07T09:24:33Z</time>
      </trkpt>
      <trkpt lat="43.28158" lon="6.01633">
        <ele>498.6</ele>
        <time>2015-01-07T09:25:13Z</time>
      </trkpt>
      <trkpt lat="43.28151" lon="6.01656">
        <ele>500.3</ele>
        <time>2015-01-07T09:25:33Z</time>
      </trkpt>
      <trkpt lat="43.28151" lon="6.01657">
        <ele>500.6</ele>
        <time>2015-01-07T09:25:34Z</time>
      </trkpt>
      <trkpt lat="43.28138" lon="6.017">
        <ele>503.7</ele>
        <time>2015-01-07T09:26:09Z</time>
      </trkpt>
      <trkpt lat="43.28127" lon="6.01719">
        <ele>505.2</ele>
        <time>2015-01-07T09:26:26Z</time>
      </trkpt>
      <trkpt lat="43.28114" lon="6.01734">
        <ele>508.1</ele>
        <time>2015-01-07T09:26:42Z</time>
      </trkpt>
      <trkpt lat="43.28113" lon="6.01736">
        <ele>508.2</ele>
        <time>2015-01-07T09:26:43Z</time>
      </trkpt>
      <trkpt lat="43.28083" lon="6.01758">
        <ele>502</ele>
        <time>2015-01-07T09:27:18Z</time>
      </trkpt>
      <trkpt lat="43.28066" lon="6.01765">
        <ele>500.2</ele>
        <time>2015-01-07T09:27:36Z</time>
      </trkpt>
      <trkpt lat="43.28049" lon="6.01769">
        <ele>512</ele>
        <time>2015-01-07T09:30:13Z</time>
      </trkpt>
      <trkpt lat="43.28049" lon="6.01769">
        <ele>512</ele>
        <time>2015-01-07T09:30:14Z</time>
      </trkpt>
      <trkpt lat="43.28048" lon="6.01816">
        <ele>504.6</ele>
        <time>2015-01-07T09:30:54Z</time>
      </trkpt>
      <trkpt lat="43.28048" lon="6.01841">
        <ele>506.6</ele>
        <time>2015-01-07T09:31:09Z</time>
      </trkpt>
      <trkpt lat="43.28045" lon="6.01864">
        <ele>507.3</ele>
        <time>2015-01-07T09:31:23Z</time>
      </trkpt>
      <trkpt lat="43.28044" lon="6.01865">
        <ele>507.3</ele>
        <time>2015-01-07T09:31:24Z</time>
      </trkpt>
      <trkpt lat="43.28026" lon="6.01903">
        <ele>507.7</ele>
        <time>2015-01-07T09:31:57Z</time>
      </trkpt>
      <trkpt lat="43.2802" lon="6.01925">
        <ele>505.6</ele>
        <time>2015-01-07T09:32:15Z</time>
      </trkpt>
      <trkpt lat="43.28012" lon="6.01948">
        <ele>505.5</ele>
        <time>2015-01-07T09:32:37Z</time>
      </trkpt>
      <trkpt lat="43.28012" lon="6.01949">
        <ele>505.5</ele>
        <time>2015-01-07T09:32:38Z</time>
      </trkpt>
      <trkpt lat="43.27993" lon="6.01988">
        <ele>508.8</ele>
        <time>2015-01-07T09:33:37Z</time>
      </trkpt>
      <trkpt lat="43.27987" lon="6.02011">
        <ele>507</ele>
        <time>2015-01-07T09:33:54Z</time>
      </trkpt>
      <trkpt lat="43.27987" lon="6.02012">
        <ele>506.8</ele>
        <time>2015-01-07T09:33:55Z</time>
      </trkpt>
      <trkpt lat="43.27975" lon="6.02055">
        <ele>505.5</ele>
        <time>2015-01-07T09:34:24Z</time>
      </trkpt>
      <trkpt lat="43.27962" lon="6.02073">
        <ele>503.7</ele>
        <time>2015-01-07T09:34:39Z</time>
      </trkpt>
      <trkpt lat="43.27949" lon="6.02089">
        <ele>503</ele>
        <time>2015-01-07T09:34:54Z</time>
      </trkpt>
      <trkpt lat="43.27937" lon="6.02106">
        <ele>502.6</ele>
        <time>2015-01-07T09:35:09Z</time>
      </trkpt>
      <trkpt lat="43.27936" lon="6.02107">
        <ele>502.5</ele>
        <time>2015-01-07T09:35:10Z</time>
      </trkpt>
      <trkpt lat="43.27909" lon="6.02136">
        <ele>500.1</ele>
        <time>2015-01-07T09:35:39Z</time>
      </trkpt>
      <trkpt lat="43.27896" lon="6.02151">
        <ele>501.1</ele>
        <time>2015-01-07T09:35:56Z</time>
      </trkpt>
      <trkpt lat="43.27884" lon="6.02169">
        <ele>500.6</ele>
        <time>2015-01-07T09:36:13Z</time>
      </trkpt>
      <trkpt lat="43.27884" lon="6.0217">
        <ele>500.5</ele>
        <time>2015-01-07T09:36:14Z</time>
      </trkpt>
      <trkpt lat="43.27875" lon="6.02214">
        <ele>500.7</ele>
        <time>2015-01-07T09:36:44Z</time>
      </trkpt>
      <trkpt lat="43.27872" lon="6.02238">
        <ele>501.8</ele>
        <time>2015-01-07T09:37:24Z</time>
      </trkpt>
      <trkpt lat="43.27872" lon="6.02239">
        <ele>501.8</ele>
        <time>2015-01-07T09:37:25Z</time>
      </trkpt>
      <trkpt lat="43.27888" lon="6.0228">
        <ele>500.3</ele>
        <time>2015-01-07T09:38:00Z</time>
      </trkpt>
      <trkpt lat="43.27892" lon="6.02303">
        <ele>501.6</ele>
        <time>2015-01-07T09:38:15Z</time>
      </trkpt>
      <trkpt lat="43.279" lon="6.02325">
        <ele>500.7</ele>
        <time>2015-01-07T09:38:30Z</time>
      </trkpt>
      <trkpt lat="43.279" lon="6.02326">
        <ele>500.8</ele>
        <time>2015-01-07T09:38:31Z</time>
      </trkpt>
      <trkpt lat="43.27928" lon="6.02353">
        <ele>499.7</ele>
        <time>2015-01-07T09:39:00Z</time>
      </trkpt>
      <trkpt lat="43.27941" lon="6.02369">
        <ele>498.8</ele>
        <time>2015-01-07T09:39:18Z</time>
      </trkpt>
      <trkpt lat="43.27956" lon="6.0238">
        <ele>499.7</ele>
        <time>2015-01-07T09:39:32Z</time>
      </trkpt>
      <trkpt lat="43.27957" lon="6.02381">
        <ele>500.1</ele>
        <time>2015-01-07T09:39:33Z</time>
      </trkpt>
      <trkpt lat="43.2798" lon="6.02413">
        <ele>500.7</ele>
        <time>2015-01-07T09:40:01Z</time>
      </trkpt>
      <trkpt lat="43.27985" lon="6.02436">
        <ele>502.1</ele>
        <time>2015-01-07T09:40:16Z</time>
      </trkpt>
      <trkpt lat="43.27989" lon="6.02459">
        <ele>501.8</ele>
        <time>2015-01-07T09:40:32Z</time>
      </trkpt>
      <trkpt lat="43.27993" lon="6.02483">
        <ele>504.6</ele>
        <time>2015-01-07T09:40:47Z</time>
      </trkpt>
      <trkpt lat="43.27994" lon="6.02484">
        <ele>504.1</ele>
        <time>2015-01-07T09:40:48Z</time>
      </trkpt>
      <trkpt lat="43.28003" lon="6.02529">
        <ele>505.2</ele>
        <time>2015-01-07T09:41:36Z</time>
      </trkpt>
      <trkpt lat="43.27989" lon="6.02543">
        <ele>500.8</ele>
        <time>2015-01-07T09:42:02Z</time>
      </trkpt>
      <trkpt lat="43.27988" lon="6.02543">
        <ele>500.5</ele>
        <time>2015-01-07T09:42:03Z</time>
      </trkpt>
      <trkpt lat="43.27954" lon="6.02548">
        <ele>499.2</ele>
        <time>2015-01-07T09:42:32Z</time>
      </trkpt>
      <trkpt lat="43.27937" lon="6.02549">
        <ele>496.7</ele>
        <time>2015-01-07T09:42:47Z</time>
      </trkpt>
      <trkpt lat="43.2792" lon="6.02549">
        <ele>499</ele>
        <time>2015-01-07T09:43:01Z</time>
      </trkpt>
      <trkpt lat="43.27903" lon="6.02549">
        <ele>499.8</ele>
        <time>2015-01-07T09:43:15Z</time>
      </trkpt>
      <trkpt lat="43.27901" lon="6.02549">
        <ele>500</ele>
        <time>2015-01-07T09:43:16Z</time>
      </trkpt>
      <trkpt lat="43.27868" lon="6.02552">
        <ele>501.7</ele>
        <time>2015-01-07T09:43:45Z</time>
      </trkpt>
      <trkpt lat="43.27851" lon="6.02551">
        <ele>503.5</ele>
        <time>2015-01-07T09:43:58Z</time>
      </trkpt>
      <trkpt lat="43.27834" lon="6.02551">
        <ele>503.8</ele>
        <time>2015-01-07T09:44:12Z</time>
      </trkpt>
      <trkpt lat="43.27816" lon="6.02553">
        <ele>501.1</ele>
        <time>2015-01-07T09:44:29Z</time>
      </trkpt>
      <trkpt lat="43.27815" lon="6.02553">
        <ele>500.8</ele>
        <time>2015-01-07T09:44:30Z</time>
      </trkpt>
      <trkpt lat="43.27782" lon="6.02555">
        <ele>500.5</ele>
        <time>2015-01-07T09:45:00Z</time>
      </trkpt>
      <trkpt lat="43.27765" lon="6.02554">
        <ele>501</ele>
        <time>2015-01-07T09:45:15Z</time>
      </trkpt>
      <trkpt lat="43.27747" lon="6.02554">
        <ele>503.2</ele>
        <time>2015-01-07T09:45:31Z</time>
      </trkpt>
      <trkpt lat="43.27747" lon="6.02554">
        <ele>503.1</ele>
        <time>2015-01-07T09:45:32Z</time>
      </trkpt>
      <trkpt lat="43.27712" lon="6.02551">
        <ele>505.6</ele>
        <time>2015-01-07T09:46:05Z</time>
      </trkpt>
      <trkpt lat="43.27695" lon="6.02546">
        <ele>506</ele>
        <time>2015-01-07T09:46:22Z</time>
      </trkpt>
      <trkpt lat="43.27677" lon="6.02541">
        <ele>507.7</ele>
        <time>2015-01-07T09:46:38Z</time>
      </trkpt>
      <trkpt lat="43.27676" lon="6.02541">
        <ele>507.7</ele>
        <time>2015-01-07T09:46:39Z</time>
      </trkpt>
      <trkpt lat="43.27643" lon="6.02543">
        <ele>508</ele>
        <time>2015-01-07T09:47:11Z</time>
      </trkpt>
      <trkpt lat="43.27628" lon="6.02554">
        <ele>503</ele>
        <time>2015-01-07T09:47:29Z</time>
      </trkpt>
      <trkpt lat="43.27611" lon="6.02562">
        <ele>506.8</ele>
        <time>2015-01-07T09:47:43Z</time>
      </trkpt>
      <trkpt lat="43.2761" lon="6.02562">
        <ele>506.7</ele>
        <time>2015-01-07T09:47:44Z</time>
      </trkpt>
      <trkpt lat="43.27576" lon="6.02558">
        <ele>509</ele>
        <time>2015-01-07T09:48:12Z</time>
      </trkpt>
      <trkpt lat="43.27559" lon="6.02558">
        <ele>509.1</ele>
        <time>2015-01-07T09:48:27Z</time>
      </trkpt>
      <trkpt lat="43.27542" lon="6.02558">
        <ele>511.1</ele>
        <time>2015-01-07T09:48:41Z</time>
      </trkpt>
      <trkpt lat="43.27524" lon="6.02555">
        <ele>511.1</ele>
        <time>2015-01-07T09:48:55Z</time>
      </trkpt>
      <trkpt lat="43.27523" lon="6.02554">
        <ele>511.2</ele>
        <time>2015-01-07T09:48:56Z</time>
      </trkpt>
      <trkpt lat="43.27491" lon="6.0254">
        <ele>516.2</ele>
        <time>2015-01-07T09:49:22Z</time>
      </trkpt>
      <trkpt lat="43.27473" lon="6.0254">
        <ele>520.2</ele>
        <time>2015-01-07T09:57:48Z</time>
      </trkpt>
      <trkpt lat="43.27472" lon="6.0254">
        <ele>520.2</ele>
        <time>2015-01-07T09:57:49Z</time>
      </trkpt>
      <trkpt lat="43.27443" lon="6.02566">
        <ele>519.7</ele>
        <time>2015-01-07T09:58:27Z</time>
      </trkpt>
      <trkpt lat="43.27426" lon="6.02566">
        <ele>520.5</ele>
        <time>2015-01-07T09:58:44Z</time>
      </trkpt>
      <trkpt lat="43.2741" lon="6.02574">
        <ele>521.2</ele>
        <time>2015-01-07T09:59:02Z</time>
      </trkpt>
      <trkpt lat="43.27409" lon="6.02575">
        <ele>521.2</ele>
        <time>2015-01-07T09:59:03Z</time>
      </trkpt>
      <trkpt lat="43.27382" lon="6.02601">
        <ele>520.7</ele>
        <time>2015-01-07T09:59:36Z</time>
      </trkpt>
      <trkpt lat="43.27369" lon="6.02619">
        <ele>523.4</ele>
        <time>2015-01-07T09:59:51Z</time>
      </trkpt>
      <trkpt lat="43.27356" lon="6.02634">
        <ele>524.4</ele>
        <time>2015-01-07T10:00:06Z</time>
      </trkpt>
      <trkpt lat="43.27355" lon="6.02635">
        <ele>524.5</ele>
        <time>2015-01-07T10:00:07Z</time>
      </trkpt>
      <trkpt lat="43.27327" lon="6.02659">
        <ele>526.4</ele>
        <time>2015-01-07T10:00:36Z</time>
      </trkpt>
      <trkpt lat="43.2731" lon="6.0267">
        <ele>527.2</ele>
        <time>2015-01-07T10:00:52Z</time>
      </trkpt>
      <trkpt lat="43.27296" lon="6.02683">
        <ele>528.4</ele>
        <time>2015-01-07T10:01:07Z</time>
      </trkpt>
      <trkpt lat="43.27295" lon="6.02683">
        <ele>528.5</ele>
        <time>2015-01-07T10:01:08Z</time>
      </trkpt>
      <trkpt lat="43.27264" lon="6.027">
        <ele>530.7</ele>
        <time>2015-01-07T10:01:36Z</time>
      </trkpt>
      <trkpt lat="43.2725" lon="6.02714">
        <ele>530.4</ele>
        <time>2015-01-07T10:01:52Z</time>
      </trkpt>
      <trkpt lat="43.27233" lon="6.02723">
        <ele>530</ele>
        <time>2015-01-07T10:02:08Z</time>
      </trkpt>
      <trkpt lat="43.27232" lon="6.02724">
        <ele>530.2</ele>
        <time>2015-01-07T10:02:09Z</time>
      </trkpt>
      <trkpt lat="43.27202" lon="6.02744">
        <ele>526.5</ele>
        <time>2015-01-07T10:02:41Z</time>
      </trkpt>
      <trkpt lat="43.27185" lon="6.0275">
        <ele>529.7</ele>
        <time>2015-01-07T10:02:55Z</time>
      </trkpt>
      <trkpt lat="43.27173" lon="6.02768">
        <ele>531</ele>
        <time>2015-01-07T10:03:12Z</time>
      </trkpt>
      <trkpt lat="43.27173" lon="6.02769">
        <ele>531</ele>
        <time>2015-01-07T10:03:13Z</time>
      </trkpt>
      <trkpt lat="43.27146" lon="6.02798">
        <ele>525.7</ele>
        <time>2015-01-07T10:03:45Z</time>
      </trkpt>
      <trkpt lat="43.2713" lon="6.02805">
        <ele>526.7</ele>
        <time>2015-01-07T10:04:03Z</time>
      </trkpt>
      <trkpt lat="43.27115" lon="6.02818">
        <ele>526.7</ele>
        <time>2015-01-07T10:04:23Z</time>
      </trkpt>
      <trkpt lat="43.27114" lon="6.02819">
        <ele>526.2</ele>
        <time>2015-01-07T10:04:24Z</time>
      </trkpt>
      <trkpt lat="43.27084" lon="6.02841">
        <ele>519.4</ele>
        <time>2015-01-07T10:04:58Z</time>
      </trkpt>
      <trkpt lat="43.27068" lon="6.0285">
        <ele>531.5</ele>
        <time>2015-01-07T10:05:13Z</time>
      </trkpt>
      <trkpt lat="43.27052" lon="6.0286">
        <ele>538.4</ele>
        <time>2015-01-07T10:05:31Z</time>
      </trkpt>
      <trkpt lat="43.27051" lon="6.02861">
        <ele>538.9</ele>
        <time>2015-01-07T10:05:32Z</time>
      </trkpt>
      <trkpt lat="43.27019" lon="6.02869">
        <ele>543</ele>
        <time>2015-01-07T10:06:04Z</time>
      </trkpt>
      <trkpt lat="43.27001" lon="6.02866">
        <ele>533.2</ele>
        <time>2015-01-07T10:06:23Z</time>
      </trkpt>
      <trkpt lat="43.26985" lon="6.02858">
        <ele>531.5</ele>
        <time>2015-01-07T10:06:39Z</time>
      </trkpt>
      <trkpt lat="43.26984" lon="6.02857">
        <ele>531.7</ele>
        <time>2015-01-07T10:06:40Z</time>
      </trkpt>
      <trkpt lat="43.26952" lon="6.02845">
        <ele>537.7</ele>
        <time>2015-01-07T10:07:11Z</time>
      </trkpt>
      <trkpt lat="43.26938" lon="6.02828">
        <ele>546.9</ele>
        <time>2015-01-07T10:07:47Z</time>
      </trkpt>
      <trkpt lat="43.26938" lon="6.02828">
        <ele>547</ele>
        <time>2015-01-07T10:07:48Z</time>
      </trkpt>
      <trkpt lat="43.26911" lon="6.02803">
        <ele>550</ele>
        <time>2015-01-07T10:08:25Z</time>
      </trkpt>
      <trkpt lat="43.26894" lon="6.02797">
        <ele>551</ele>
        <time>2015-01-07T10:08:42Z</time>
      </trkpt>
      <trkpt lat="43.26877" lon="6.02793">
        <ele>552</ele>
        <time>2015-01-07T10:14:39Z</time>
      </trkpt>
      <trkpt lat="43.26876" lon="6.02793">
        <ele>552</ele>
        <time>2015-01-07T10:14:40Z</time>
      </trkpt>
      <trkpt lat="43.26848" lon="6.02765">
        <ele>551.7</ele>
        <time>2015-01-07T10:15:36Z</time>
      </trkpt>
      <trkpt lat="43.26861" lon="6.0278">
        <ele>549</ele>
        <time>2015-01-07T10:18:44Z</time>
      </trkpt>
      <trkpt lat="43.26862" lon="6.02781">
        <ele>549</ele>
        <time>2015-01-07T10:18:45Z</time>
      </trkpt>
      <trkpt lat="43.26894" lon="6.02794">
        <ele>547.5</ele>
        <time>2015-01-07T10:19:19Z</time>
      </trkpt>
      <trkpt lat="43.26912" lon="6.02799">
        <ele>549.4</ele>
        <time>2015-01-07T10:19:56Z</time>
      </trkpt>
      <trkpt lat="43.26912" lon="6.02799">
        <ele>549.5</ele>
        <time>2015-01-07T10:19:57Z</time>
      </trkpt>
      <trkpt lat="43.26928" lon="6.0281">
        <ele>550</ele>
        <time>2015-01-07T10:21:16Z</time>
      </trkpt>
      <trkpt lat="43.26955" lon="6.02838">
        <ele>545.7</ele>
        <time>2015-01-07T10:21:56Z</time>
      </trkpt>
      <trkpt lat="43.26972" lon="6.02843">
        <ele>542.9</ele>
        <time>2015-01-07T10:22:14Z</time>
      </trkpt>
      <trkpt lat="43.26987" lon="6.02854">
        <ele>542.2</ele>
        <time>2015-01-07T10:22:31Z</time>
      </trkpt>
      <trkpt lat="43.26988" lon="6.02854">
        <ele>542</ele>
        <time>2015-01-07T10:22:32Z</time>
      </trkpt>
      <trkpt lat="43.2702" lon="6.02863">
        <ele>540</ele>
        <time>2015-01-07T10:23:04Z</time>
      </trkpt>
      <trkpt lat="43.27037" lon="6.02872">
        <ele>541.7</ele>
        <time>2015-01-07T10:23:22Z</time>
      </trkpt>
      <trkpt lat="43.27034" lon="6.02896">
        <ele>544.2</ele>
        <time>2015-01-07T10:23:45Z</time>
      </trkpt>
      <trkpt lat="43.27033" lon="6.02896">
        <ele>544.4</ele>
        <time>2015-01-07T10:23:46Z</time>
      </trkpt>
      <trkpt lat="43.27012" lon="6.02932">
        <ele>545.9</ele>
        <time>2015-01-07T10:24:30Z</time>
      </trkpt>
      <trkpt lat="43.27001" lon="6.02952">
        <ele>545.7</ele>
        <time>2015-01-07T10:24:50Z</time>
      </trkpt>
      <trkpt lat="43.27001" lon="6.02953">
        <ele>545.7</ele>
        <time>2015-01-07T10:24:51Z</time>
      </trkpt>
      <trkpt lat="43.26988" lon="6.02996">
        <ele>547.7</ele>
        <time>2015-01-07T10:25:32Z</time>
      </trkpt>
      <trkpt lat="43.2698" lon="6.03017">
        <ele>551.4</ele>
        <time>2015-01-07T10:25:50Z</time>
      </trkpt>
      <trkpt lat="43.26973" lon="6.0304">
        <ele>549.7</ele>
        <time>2015-01-07T10:26:15Z</time>
      </trkpt>
      <trkpt lat="43.26973" lon="6.03041">
        <ele>549.7</ele>
        <time>2015-01-07T10:26:16Z</time>
      </trkpt>
      <trkpt lat="43.26967" lon="6.03086">
        <ele>549.2</ele>
        <time>2015-01-07T10:26:57Z</time>
      </trkpt>
      <trkpt lat="43.26962" lon="6.0311">
        <ele>546.4</ele>
        <time>2015-01-07T10:27:19Z</time>
      </trkpt>
      <trkpt lat="43.26962" lon="6.03111">
        <ele>546.9</ele>
        <time>2015-01-07T10:27:20Z</time>
      </trkpt>
      <trkpt lat="43.26954" lon="6.03157">
        <ele>549.2</ele>
        <time>2015-01-07T10:27:56Z</time>
      </trkpt>
      <trkpt lat="43.26956" lon="6.03179">
        <ele>543.4</ele>
        <time>2015-01-07T10:28:22Z</time>
      </trkpt>
      <trkpt lat="43.26956" lon="6.03181">
        <ele>544.2</ele>
        <time>2015-01-07T10:28:23Z</time>
      </trkpt>
      <trkpt lat="43.26965" lon="6.03225">
        <ele>546.7</ele>
        <time>2015-01-07T10:29:02Z</time>
      </trkpt>
      <trkpt lat="43.2697" lon="6.03247">
        <ele>548</ele>
        <time>2015-01-07T10:29:22Z</time>
      </trkpt>
      <trkpt lat="43.26976" lon="6.0327">
        <ele>556</ele>
        <time>2015-01-07T10:29:41Z</time>
      </trkpt>
      <trkpt lat="43.26976" lon="6.03271">
        <ele>556</ele>
        <time>2015-01-07T10:29:42Z</time>
      </trkpt>
      <trkpt lat="43.26986" lon="6.03316">
        <ele>556.7</ele>
        <time>2015-01-07T10:30:26Z</time>
      </trkpt>
      <trkpt lat="43.26988" lon="6.0334">
        <ele>562.4</ele>
        <time>2015-01-07T10:30:45Z</time>
      </trkpt>
      <trkpt lat="43.26988" lon="6.03341">
        <ele>562.4</ele>
        <time>2015-01-07T10:30:46Z</time>
      </trkpt>
      <trkpt lat="43.2699" lon="6.03387">
        <ele>564.5</ele>
        <time>2015-01-07T10:31:35Z</time>
      </trkpt>
      <trkpt lat="43.26992" lon="6.03411">
        <ele>563</ele>
        <time>2015-01-07T10:31:57Z</time>
      </trkpt>
      <trkpt lat="43.26992" lon="6.03412">
        <ele>562.9</ele>
        <time>2015-01-07T10:31:58Z</time>
      </trkpt>
      <trkpt lat="43.26991" lon="6.03458">
        <ele>573.4</ele>
        <time>2015-01-07T10:33:00Z</time>
      </trkpt>
      <trkpt lat="43.26991" lon="6.03459">
        <ele>574.4</ele>
        <time>2015-01-07T10:33:01Z</time>
      </trkpt>
      <trkpt lat="43.26981" lon="6.03505">
        <ele>577.5</ele>
        <time>2015-01-07T10:33:46Z</time>
      </trkpt>
      <trkpt lat="43.2698" lon="6.03529">
        <ele>579.5</ele>
        <time>2015-01-07T10:34:14Z</time>
      </trkpt>
      <trkpt lat="43.2698" lon="6.0353">
        <ele>579.7</ele>
        <time>2015-01-07T10:34:15Z</time>
      </trkpt>
      <trkpt lat="43.26988" lon="6.03576">
        <ele>595</ele>
        <time>2015-01-07T10:35:14Z</time>
      </trkpt>
      <trkpt lat="43.26993" lon="6.03599">
        <ele>593.9</ele>
        <time>2015-01-07T10:35:46Z</time>
      </trkpt>
      <trkpt lat="43.26993" lon="6.036">
        <ele>593.9</ele>
        <time>2015-01-07T10:35:47Z</time>
      </trkpt>
      <trkpt lat="43.27002" lon="6.03646">
        <ele>601.2</ele>
        <time>2015-01-07T10:36:37Z</time>
      </trkpt>
      <trkpt lat="43.27006" lon="6.03669">
        <ele>609.7</ele>
        <time>2015-01-07T10:37:12Z</time>
      </trkpt>
      <trkpt lat="43.27006" lon="6.0367">
        <ele>609.9</ele>
        <time>2015-01-07T10:37:13Z</time>
      </trkpt>
      <trkpt lat="43.27009" lon="6.03718">
        <ele>617.7</ele>
        <time>2015-01-07T10:38:29Z</time>
      </trkpt>
      <trkpt lat="43.27008" lon="6.03719">
        <ele>617</ele>
        <time>2015-01-07T10:38:30Z</time>
      </trkpt>
      <trkpt lat="43.27018" lon="6.03765">
        <ele>628.2</ele>
        <time>2015-01-07T10:39:44Z</time>
      </trkpt>
      <trkpt lat="43.27018" lon="6.03766">
        <ele>628</ele>
        <time>2015-01-07T10:39:45Z</time>
      </trkpt>
      <trkpt lat="43.26997" lon="6.03793">
        <ele>641.5</ele>
        <time>2015-01-07T10:42:02Z</time>
      </trkpt>
      <trkpt lat="43.26996" lon="6.03792">
        <ele>640.5</ele>
        <time>2015-01-07T10:42:03Z</time>
      </trkpt>
      <trkpt lat="43.26992" lon="6.03841">
        <ele>642.2</ele>
        <time>2015-01-07T10:43:28Z</time>
      </trkpt>
      <trkpt lat="43.26992" lon="6.03842">
        <ele>642</ele>
        <time>2015-01-07T10:43:29Z</time>
      </trkpt>
      <trkpt lat="43.26971" lon="6.03879">
        <ele>655.9</ele>
        <time>2015-01-07T10:44:35Z</time>
      </trkpt>
      <trkpt lat="43.2697" lon="6.0388">
        <ele>656</ele>
        <time>2015-01-07T10:44:36Z</time>
      </trkpt>
      <trkpt lat="43.26943" lon="6.0391">
        <ele>662.7</ele>
        <time>2015-01-07T10:45:40Z</time>
      </trkpt>
      <trkpt lat="43.26943" lon="6.03911">
        <ele>662.9</ele>
        <time>2015-01-07T10:45:41Z</time>
      </trkpt>
      <trkpt lat="43.26921" lon="6.03947">
        <ele>671.4</ele>
        <time>2015-01-07T10:46:46Z</time>
      </trkpt>
      <trkpt lat="43.26921" lon="6.03948">
        <ele>671.5</ele>
        <time>2015-01-07T10:46:47Z</time>
      </trkpt>
      <trkpt lat="43.26896" lon="6.03979">
        <ele>679.7</ele>
        <time>2015-01-07T10:47:50Z</time>
      </trkpt>
      <trkpt lat="43.26895" lon="6.0398">
        <ele>679.7</ele>
        <time>2015-01-07T10:47:51Z</time>
      </trkpt>
      <trkpt lat="43.26889" lon="6.04027">
        <ele>677.7</ele>
        <time>2015-01-07T10:48:44Z</time>
      </trkpt>
      <trkpt lat="43.26888" lon="6.04051">
        <ele>681.9</ele>
        <time>2015-01-07T10:49:07Z</time>
      </trkpt>
      <trkpt lat="43.26888" lon="6.04052">
        <ele>682</ele>
        <time>2015-01-07T10:49:08Z</time>
      </trkpt>
      <trkpt lat="43.26894" lon="6.04099">
        <ele>682</ele>
        <time>2015-01-07T10:49:53Z</time>
      </trkpt>
      <trkpt lat="43.26889" lon="6.04122">
        <ele>684.2</ele>
        <time>2015-01-07T10:50:21Z</time>
      </trkpt>
      <trkpt lat="43.26889" lon="6.04123">
        <ele>684</ele>
        <time>2015-01-07T10:50:22Z</time>
      </trkpt>
      <trkpt lat="43.26875" lon="6.04166">
        <ele>685.7</ele>
        <time>2015-01-07T10:51:04Z</time>
      </trkpt>
      <trkpt lat="43.26874" lon="6.0419">
        <ele>685.2</ele>
        <time>2015-01-07T10:51:32Z</time>
      </trkpt>
      <trkpt lat="43.26874" lon="6.04191">
        <ele>685.4</ele>
        <time>2015-01-07T10:51:33Z</time>
      </trkpt>
      <trkpt lat="43.26885" lon="6.04211">
        <ele>687.7</ele>
        <time>2015-01-07T10:56:09Z</time>
      </trkpt>
      <trkpt lat="43.26905" lon="6.04245">
        <ele>679.7</ele>
        <time>2015-01-07T10:56:52Z</time>
      </trkpt>
      <trkpt lat="43.2692" lon="6.04256">
        <ele>680.7</ele>
        <time>2015-01-07T10:57:12Z</time>
      </trkpt>
      <trkpt lat="43.26921" lon="6.04256">
        <ele>680.7</ele>
        <time>2015-01-07T10:57:13Z</time>
      </trkpt>
      <trkpt lat="43.26953" lon="6.0427">
        <ele>681</ele>
        <time>2015-01-07T10:57:49Z</time>
      </trkpt>
      <trkpt lat="43.2697" lon="6.04278">
        <ele>678.5</ele>
        <time>2015-01-07T10:58:14Z</time>
      </trkpt>
      <trkpt lat="43.26971" lon="6.04279">
        <ele>678.5</ele>
        <time>2015-01-07T10:58:15Z</time>
      </trkpt>
    </trkseg>
  </trk>
  <trk>
    <name><![CDATA[Néoules Barre de Cuers_2]]></name>
    <trkseg>
      <trkpt lat="43.27077" lon="6.04393">
        <ele>684.3</ele>
        <time>2015-01-07T12:21:10Z</time>
      </trkpt>
      <trkpt lat="43.27078" lon="6.04394">
        <ele>684.3</ele>
        <time>2015-01-07T12:21:11Z</time>
      </trkpt>
      <trkpt lat="43.27109" lon="6.04396">
        <ele>682.2</ele>
        <time>2015-01-07T12:22:03Z</time>
      </trkpt>
      <trkpt lat="43.27126" lon="6.04395">
        <ele>677.2</ele>
        <time>2015-01-07T12:22:35Z</time>
      </trkpt>
      <trkpt lat="43.27127" lon="6.04396">
        <ele>676.9</ele>
        <time>2015-01-07T12:22:36Z</time>
      </trkpt>
      <trkpt lat="43.2716" lon="6.04408">
        <ele>669.5</ele>
        <time>2015-01-07T12:23:26Z</time>
      </trkpt>
      <trkpt lat="43.27177" lon="6.04411">
        <ele>662.4</ele>
        <time>2015-01-07T12:23:53Z</time>
      </trkpt>
      <trkpt lat="43.27178" lon="6.04411">
        <ele>661.9</ele>
        <time>2015-01-07T12:23:54Z</time>
      </trkpt>
      <trkpt lat="43.27211" lon="6.04423">
        <ele>653</ele>
        <time>2015-01-07T12:24:49Z</time>
      </trkpt>
      <trkpt lat="43.27226" lon="6.04434">
        <ele>650.7</ele>
        <time>2015-01-07T12:25:07Z</time>
      </trkpt>
      <trkpt lat="43.27228" lon="6.04436">
        <ele>651</ele>
        <time>2015-01-07T12:25:08Z</time>
      </trkpt>
      <trkpt lat="43.27253" lon="6.04465">
        <ele>650.9</ele>
        <time>2015-01-07T12:25:50Z</time>
      </trkpt>
      <trkpt lat="43.27268" lon="6.04478">
        <ele>651.7</ele>
        <time>2015-01-07T12:26:13Z</time>
      </trkpt>
      <trkpt lat="43.27269" lon="6.04479">
        <ele>651.5</ele>
        <time>2015-01-07T12:26:14Z</time>
      </trkpt>
      <trkpt lat="43.27299" lon="6.04493">
        <ele>645.7</ele>
        <time>2015-01-07T12:27:00Z</time>
      </trkpt>
      <trkpt lat="43.27317" lon="6.04492">
        <ele>641.9</ele>
        <time>2015-01-07T12:27:32Z</time>
      </trkpt>
      <trkpt lat="43.27318" lon="6.04492">
        <ele>641.7</ele>
        <time>2015-01-07T12:27:33Z</time>
      </trkpt>
      <trkpt lat="43.27351" lon="6.045">
        <ele>635.7</ele>
        <time>2015-01-07T12:28:38Z</time>
      </trkpt>
      <trkpt lat="43.27353" lon="6.04501">
        <ele>635.5</ele>
        <time>2015-01-07T12:28:39Z</time>
      </trkpt>
      <trkpt lat="43.27384" lon="6.04519">
        <ele>630</ele>
        <time>2015-01-07T12:29:19Z</time>
      </trkpt>
      <trkpt lat="43.27398" lon="6.04534">
        <ele>631</ele>
        <time>2015-01-07T12:29:38Z</time>
      </trkpt>
      <trkpt lat="43.27415" lon="6.04542">
        <ele>625.7</ele>
        <time>2015-01-07T12:30:04Z</time>
      </trkpt>
      <trkpt lat="43.27415" lon="6.04542">
        <ele>625.7</ele>
        <time>2015-01-07T12:30:05Z</time>
      </trkpt>
      <trkpt lat="43.27444" lon="6.04565">
        <ele>618.7</ele>
        <time>2015-01-07T12:30:50Z</time>
      </trkpt>
      <trkpt lat="43.2746" lon="6.04577">
        <ele>621</ele>
        <time>2015-01-07T12:31:09Z</time>
      </trkpt>
      <trkpt lat="43.2746" lon="6.04577">
        <ele>621</ele>
        <time>2015-01-07T12:31:10Z</time>
      </trkpt>
      <trkpt lat="43.27492" lon="6.04597">
        <ele>616.7</ele>
        <time>2015-01-07T12:31:55Z</time>
      </trkpt>
      <trkpt lat="43.27509" lon="6.046">
        <ele>608.7</ele>
        <time>2015-01-07T12:32:19Z</time>
      </trkpt>
      <trkpt lat="43.2751" lon="6.04601">
        <ele>608.9</ele>
        <time>2015-01-07T12:32:20Z</time>
      </trkpt>
      <trkpt lat="43.27542" lon="6.04617">
        <ele>605.5</ele>
        <time>2015-01-07T12:33:16Z</time>
      </trkpt>
      <trkpt lat="43.27556" lon="6.04631">
        <ele>603.7</ele>
        <time>2015-01-07T12:33:35Z</time>
      </trkpt>
      <trkpt lat="43.27556" lon="6.04632">
        <ele>603.7</ele>
        <time>2015-01-07T12:33:36Z</time>
      </trkpt>
      <trkpt lat="43.27587" lon="6.04649">
        <ele>604.5</ele>
        <time>2015-01-07T12:34:05Z</time>
      </trkpt>
      <trkpt lat="43.276" lon="6.04665">
        <ele>602.7</ele>
        <time>2015-01-07T12:34:24Z</time>
      </trkpt>
      <trkpt lat="43.27614" lon="6.04678">
        <ele>599.2</ele>
        <time>2015-01-07T12:34:42Z</time>
      </trkpt>
      <trkpt lat="43.27615" lon="6.04678">
        <ele>599</ele>
        <time>2015-01-07T12:34:43Z</time>
      </trkpt>
      <trkpt lat="43.27638" lon="6.0471">
        <ele>600.7</ele>
        <time>2015-01-07T12:37:11Z</time>
      </trkpt>
      <trkpt lat="43.27638" lon="6.0471">
        <ele>600.5</ele>
        <time>2015-01-07T12:37:12Z</time>
      </trkpt>
      <trkpt lat="43.27664" lon="6.04742">
        <ele>606.5</ele>
        <time>2015-01-07T12:38:16Z</time>
      </trkpt>
      <trkpt lat="43.27664" lon="6.04743">
        <ele>606.9</ele>
        <time>2015-01-07T12:38:17Z</time>
      </trkpt>
      <trkpt lat="43.27689" lon="6.04776">
        <ele>610.4</ele>
        <time>2015-01-07T12:39:14Z</time>
      </trkpt>
      <trkpt lat="43.27697" lon="6.04798">
        <ele>613.9</ele>
        <time>2015-01-07T12:39:44Z</time>
      </trkpt>
      <trkpt lat="43.27697" lon="6.04799">
        <ele>614.2</ele>
        <time>2015-01-07T12:39:45Z</time>
      </trkpt>
      <trkpt lat="43.27715" lon="6.0484">
        <ele>618</ele>
        <time>2015-01-07T12:40:51Z</time>
      </trkpt>
      <trkpt lat="43.27715" lon="6.04841">
        <ele>618</ele>
        <time>2015-01-07T12:40:52Z</time>
      </trkpt>
      <trkpt lat="43.27711" lon="6.04888">
        <ele>625.2</ele>
        <time>2015-01-07T12:42:11Z</time>
      </trkpt>
      <trkpt lat="43.2771" lon="6.04889">
        <ele>625.4</ele>
        <time>2015-01-07T12:42:12Z</time>
      </trkpt>
      <trkpt lat="43.27718" lon="6.04936">
        <ele>637.7</ele>
        <time>2015-01-07T12:43:24Z</time>
      </trkpt>
      <trkpt lat="43.27718" lon="6.04936">
        <ele>637.7</ele>
        <time>2015-01-07T12:43:25Z</time>
      </trkpt>
      <trkpt lat="43.2773" lon="6.04981">
        <ele>641.7</ele>
        <time>2015-01-07T12:44:29Z</time>
      </trkpt>
      <trkpt lat="43.2773" lon="6.04982">
        <ele>641.5</ele>
        <time>2015-01-07T12:44:30Z</time>
      </trkpt>
      <trkpt lat="43.27741" lon="6.05027">
        <ele>652.5</ele>
        <time>2015-01-07T12:45:21Z</time>
      </trkpt>
      <trkpt lat="43.27756" lon="6.05039">
        <ele>655.9</ele>
        <time>2015-01-07T12:46:24Z</time>
      </trkpt>
      <trkpt lat="43.27757" lon="6.05039">
        <ele>655.7</ele>
        <time>2015-01-07T12:46:25Z</time>
      </trkpt>
      <trkpt lat="43.27785" lon="6.05067">
        <ele>652.2</ele>
        <time>2015-01-07T12:47:22Z</time>
      </trkpt>
      <trkpt lat="43.27795" lon="6.05085">
        <ele>650.7</ele>
        <time>2015-01-07T12:47:41Z</time>
      </trkpt>
      <trkpt lat="43.27796" lon="6.05086">
        <ele>650.5</ele>
        <time>2015-01-07T12:47:42Z</time>
      </trkpt>
      <trkpt lat="43.27817" lon="6.05123">
        <ele>644.5</ele>
        <time>2015-01-07T12:48:18Z</time>
      </trkpt>
      <trkpt lat="43.2783" lon="6.0514">
        <ele>649</ele>
        <time>2015-01-07T12:48:41Z</time>
      </trkpt>
      <trkpt lat="43.27845" lon="6.05152">
        <ele>651.2</ele>
        <time>2015-01-07T12:49:04Z</time>
      </trkpt>
      <trkpt lat="43.27846" lon="6.05153">
        <ele>651.5</ele>
        <time>2015-01-07T12:49:05Z</time>
      </trkpt>
      <trkpt lat="43.2788" lon="6.0515">
        <ele>647.2</ele>
        <time>2015-01-07T12:49:57Z</time>
      </trkpt>
      <trkpt lat="43.27895" lon="6.0515">
        <ele>644</ele>
        <time>2015-01-07T12:50:23Z</time>
      </trkpt>
      <trkpt lat="43.27898" lon="6.05152">
        <ele>644.5</ele>
        <time>2015-01-07T12:50:24Z</time>
      </trkpt>
      <trkpt lat="43.27921" lon="6.05183">
        <ele>645.7</ele>
        <time>2015-01-07T12:50:56Z</time>
      </trkpt>
      <trkpt lat="43.27936" lon="6.05195">
        <ele>645.9</ele>
        <time>2015-01-07T12:51:17Z</time>
      </trkpt>
      <trkpt lat="43.27953" lon="6.05202">
        <ele>641.2</ele>
        <time>2015-01-07T12:51:47Z</time>
      </trkpt>
      <trkpt lat="43.27953" lon="6.05202">
        <ele>640.7</ele>
        <time>2015-01-07T12:51:48Z</time>
      </trkpt>
      <trkpt lat="43.27982" lon="6.05224">
        <ele>637.5</ele>
        <time>2015-01-07T12:52:26Z</time>
      </trkpt>
      <trkpt lat="43.27998" lon="6.05235">
        <ele>636</ele>
        <time>2015-01-07T12:52:45Z</time>
      </trkpt>
      <trkpt lat="43.28014" lon="6.05245">
        <ele>634.4</ele>
        <time>2015-01-07T12:53:12Z</time>
      </trkpt>
      <trkpt lat="43.28014" lon="6.05246">
        <ele>634.4</ele>
        <time>2015-01-07T12:53:13Z</time>
      </trkpt>
      <trkpt lat="43.28046" lon="6.05256">
        <ele>626.9</ele>
        <time>2015-01-07T12:54:19Z</time>
      </trkpt>
      <trkpt lat="43.28048" lon="6.05257">
        <ele>626.9</ele>
        <time>2015-01-07T12:54:20Z</time>
      </trkpt>
      <trkpt lat="43.2808" lon="6.05275">
        <ele>622</ele>
        <time>2015-01-07T12:55:09Z</time>
      </trkpt>
      <trkpt lat="43.28094" lon="6.05289">
        <ele>621</ele>
        <time>2015-01-07T12:55:29Z</time>
      </trkpt>
      <trkpt lat="43.28095" lon="6.05289">
        <ele>621</ele>
        <time>2015-01-07T12:55:30Z</time>
      </trkpt>
      <trkpt lat="43.28124" lon="6.05316">
        <ele>618</ele>
        <time>2015-01-07T12:56:07Z</time>
      </trkpt>
      <trkpt lat="43.28139" lon="6.05327">
        <ele>615.2</ele>
        <time>2015-01-07T12:56:34Z</time>
      </trkpt>
      <trkpt lat="43.2814" lon="6.05327">
        <ele>615.2</ele>
        <time>2015-01-07T12:56:35Z</time>
      </trkpt>
      <trkpt lat="43.2817" lon="6.0535">
        <ele>612.7</ele>
        <time>2015-01-07T12:57:13Z</time>
      </trkpt>
      <trkpt lat="43.28181" lon="6.05369">
        <ele>608.9</ele>
        <time>2015-01-07T12:57:34Z</time>
      </trkpt>
      <trkpt lat="43.28197" lon="6.0538">
        <ele>608</ele>
        <time>2015-01-07T12:58:00Z</time>
      </trkpt>
      <trkpt lat="43.28198" lon="6.05381">
        <ele>607.5</ele>
        <time>2015-01-07T12:58:01Z</time>
      </trkpt>
      <trkpt lat="43.28225" lon="6.05408">
        <ele>599.9</ele>
        <time>2015-01-07T12:58:44Z</time>
      </trkpt>
      <trkpt lat="43.28243" lon="6.05406">
        <ele>596.4</ele>
        <time>2015-01-07T12:59:16Z</time>
      </trkpt>
      <trkpt lat="43.28243" lon="6.05407">
        <ele>596.4</ele>
        <time>2015-01-07T12:59:17Z</time>
      </trkpt>
      <trkpt lat="43.28271" lon="6.05435">
        <ele>599</ele>
        <time>2015-01-07T12:59:47Z</time>
      </trkpt>
      <trkpt lat="43.28282" lon="6.05453">
        <ele>600.7</ele>
        <time>2015-01-07T13:00:19Z</time>
      </trkpt>
      <trkpt lat="43.28283" lon="6.05454">
        <ele>601</ele>
        <time>2015-01-07T13:00:20Z</time>
      </trkpt>
      <trkpt lat="43.28297" lon="6.05468">
        <ele>604.5</ele>
        <time>2015-01-07T13:01:48Z</time>
      </trkpt>
      <trkpt lat="43.28314" lon="6.0551">
        <ele>611.4</ele>
        <time>2015-01-07T13:02:48Z</time>
      </trkpt>
      <trkpt lat="43.28315" lon="6.05511">
        <ele>611.4</ele>
        <time>2015-01-07T13:02:49Z</time>
      </trkpt>
      <trkpt lat="43.28341" lon="6.05541">
        <ele>617.5</ele>
        <time>2015-01-07T13:03:56Z</time>
      </trkpt>
      <trkpt lat="43.28342" lon="6.05542">
        <ele>617.5</ele>
        <time>2015-01-07T13:03:57Z</time>
      </trkpt>
      <trkpt lat="43.28361" lon="6.0558">
        <ele>625.2</ele>
        <time>2015-01-07T13:04:56Z</time>
      </trkpt>
      <trkpt lat="43.28364" lon="6.05604">
        <ele>630.2</ele>
        <time>2015-01-07T13:05:38Z</time>
      </trkpt>
      <trkpt lat="43.28365" lon="6.05604">
        <ele>630.4</ele>
        <time>2015-01-07T13:05:39Z</time>
      </trkpt>
      <trkpt lat="43.28386" lon="6.05642">
        <ele>639.5</ele>
        <time>2015-01-07T13:06:54Z</time>
      </trkpt>
      <trkpt lat="43.28386" lon="6.05643">
        <ele>639.4</ele>
        <time>2015-01-07T13:06:55Z</time>
      </trkpt>
      <trkpt lat="43.28386" lon="6.05691">
        <ele>648.5</ele>
        <time>2015-01-07T13:08:17Z</time>
      </trkpt>
      <trkpt lat="43.28386" lon="6.05692">
        <ele>648.7</ele>
        <time>2015-01-07T13:08:18Z</time>
      </trkpt>
      <trkpt lat="43.28394" lon="6.05738">
        <ele>661.5</ele>
        <time>2015-01-07T13:09:30Z</time>
      </trkpt>
      <trkpt lat="43.28394" lon="6.05738">
        <ele>661.5</ele>
        <time>2015-01-07T13:09:31Z</time>
      </trkpt>
      <trkpt lat="43.28412" lon="6.0578">
        <ele>671.7</ele>
        <time>2015-01-07T13:10:40Z</time>
      </trkpt>
      <trkpt lat="43.28412" lon="6.0578">
        <ele>671.7</ele>
        <time>2015-01-07T13:10:41Z</time>
      </trkpt>
      <trkpt lat="43.28432" lon="6.05816">
        <ele>683</ele>
        <time>2015-01-07T13:14:43Z</time>
      </trkpt>
      <trkpt lat="43.28432" lon="6.05817">
        <ele>683.2</ele>
        <time>2015-01-07T13:14:44Z</time>
      </trkpt>
      <trkpt lat="43.28454" lon="6.05852">
        <ele>687.2</ele>
        <time>2015-01-07T13:15:42Z</time>
      </trkpt>
      <trkpt lat="43.2847" lon="6.05863">
        <ele>689.5</ele>
        <time>2015-01-07T13:16:11Z</time>
      </trkpt>
      <trkpt lat="43.28471" lon="6.05863">
        <ele>689.5</ele>
        <time>2015-01-07T13:16:12Z</time>
      </trkpt>
      <trkpt lat="43.28497" lon="6.05894">
        <ele>693.2</ele>
        <time>2015-01-07T13:17:09Z</time>
      </trkpt>
      <trkpt lat="43.28514" lon="6.05903">
        <ele>695.9</ele>
        <time>2015-01-07T13:17:42Z</time>
      </trkpt>
      <trkpt lat="43.28515" lon="6.05903">
        <ele>696.5</ele>
        <time>2015-01-07T13:17:43Z</time>
      </trkpt>
      <trkpt lat="43.28546" lon="6.05923">
        <ele>704.2</ele>
        <time>2015-01-07T13:18:42Z</time>
      </trkpt>
      <trkpt lat="43.2856" lon="6.05937">
        <ele>709</ele>
        <time>2015-01-07T13:20:01Z</time>
      </trkpt>
      <trkpt lat="43.2856" lon="6.05938">
        <ele>708.5</ele>
        <time>2015-01-07T13:20:02Z</time>
      </trkpt>
      <trkpt lat="43.28584" lon="6.05972">
        <ele>709.5</ele>
        <time>2015-01-07T13:21:21Z</time>
      </trkpt>
      <trkpt lat="43.28584" lon="6.05972">
        <ele>709.5</ele>
        <time>2015-01-07T13:21:22Z</time>
      </trkpt>
      <trkpt lat="43.28587" lon="6.05947">
        <ele>708.4</ele>
        <time>2015-01-07T13:30:14Z</time>
      </trkpt>
      <trkpt lat="43.28612" lon="6.05915">
        <ele>694.2</ele>
        <time>2015-01-07T13:30:55Z</time>
      </trkpt>
      <trkpt lat="43.28624" lon="6.05899">
        <ele>693.7</ele>
        <time>2015-01-07T13:31:11Z</time>
      </trkpt>
      <trkpt lat="43.28634" lon="6.0588">
        <ele>692.2</ele>
        <time>2015-01-07T13:31:27Z</time>
      </trkpt>
      <trkpt lat="43.28635" lon="6.05878">
        <ele>692.5</ele>
        <time>2015-01-07T13:31:28Z</time>
      </trkpt>
      <trkpt lat="43.28656" lon="6.05841">
        <ele>689</ele>
        <time>2015-01-07T13:32:12Z</time>
      </trkpt>
      <trkpt lat="43.2866" lon="6.05817">
        <ele>682.4</ele>
        <time>2015-01-07T13:32:32Z</time>
      </trkpt>
      <trkpt lat="43.2866" lon="6.05816">
        <ele>682</ele>
        <time>2015-01-07T13:32:33Z</time>
      </trkpt>
      <trkpt lat="43.28672" lon="6.05773">
        <ele>680</ele>
        <time>2015-01-07T13:33:07Z</time>
      </trkpt>
      <trkpt lat="43.28679" lon="6.05751">
        <ele>678</ele>
        <time>2015-01-07T13:33:26Z</time>
      </trkpt>
      <trkpt lat="43.28686" lon="6.0573">
        <ele>672</ele>
        <time>2015-01-07T13:33:45Z</time>
      </trkpt>
      <trkpt lat="43.28687" lon="6.05728">
        <ele>672</ele>
        <time>2015-01-07T13:33:46Z</time>
      </trkpt>
      <trkpt lat="43.28703" lon="6.05687">
        <ele>672.4</ele>
        <time>2015-01-07T13:34:18Z</time>
      </trkpt>
      <trkpt lat="43.28713" lon="6.05668">
        <ele>673.4</ele>
        <time>2015-01-07T13:34:34Z</time>
      </trkpt>
      <trkpt lat="43.28726" lon="6.05651">
        <ele>666.4</ele>
        <time>2015-01-07T13:34:53Z</time>
      </trkpt>
      <trkpt lat="43.28727" lon="6.05651">
        <ele>666.2</ele>
        <time>2015-01-07T13:34:54Z</time>
      </trkpt>
      <trkpt lat="43.28753" lon="6.0562">
        <ele>657.7</ele>
        <time>2015-01-07T13:35:44Z</time>
      </trkpt>
      <trkpt lat="43.2876" lon="6.05597">
        <ele>651.4</ele>
        <time>2015-01-07T13:36:08Z</time>
      </trkpt>
      <trkpt lat="43.2876" lon="6.05596">
        <ele>651.2</ele>
        <time>2015-01-07T13:36:09Z</time>
      </trkpt>
      <trkpt lat="43.28787" lon="6.05572">
        <ele>645</ele>
        <time>2015-01-07T13:37:01Z</time>
      </trkpt>
      <trkpt lat="43.28803" lon="6.0556">
        <ele>640</ele>
        <time>2015-01-07T13:37:38Z</time>
      </trkpt>
      <trkpt lat="43.28803" lon="6.0556">
        <ele>639.7</ele>
        <time>2015-01-07T13:37:39Z</time>
      </trkpt>
      <trkpt lat="43.28835" lon="6.0554">
        <ele>627</ele>
        <time>2015-01-07T13:38:46Z</time>
      </trkpt>
      <trkpt lat="43.28835" lon="6.05539">
        <ele>627</ele>
        <time>2015-01-07T13:38:47Z</time>
      </trkpt>
      <trkpt lat="43.28868" lon="6.05524">
        <ele>620.4</ele>
        <time>2015-01-07T13:39:51Z</time>
      </trkpt>
      <trkpt lat="43.28868" lon="6.05524">
        <ele>620.4</ele>
        <time>2015-01-07T13:39:52Z</time>
      </trkpt>
      <trkpt lat="43.28903" lon="6.05515">
        <ele>615.2</ele>
        <time>2015-01-07T13:40:51Z</time>
      </trkpt>
      <trkpt lat="43.28919" lon="6.05506">
        <ele>611.7</ele>
        <time>2015-01-07T13:41:20Z</time>
      </trkpt>
      <trkpt lat="43.2892" lon="6.05506">
        <ele>611.7</ele>
        <time>2015-01-07T13:41:21Z</time>
      </trkpt>
      <trkpt lat="43.28952" lon="6.05491">
        <ele>612.5</ele>
        <time>2015-01-07T13:43:14Z</time>
      </trkpt>
      <trkpt lat="43.28952" lon="6.0549">
        <ele>612.4</ele>
        <time>2015-01-07T13:43:15Z</time>
      </trkpt>
      <trkpt lat="43.28963" lon="6.05446">
        <ele>604.5</ele>
        <time>2015-01-07T13:44:09Z</time>
      </trkpt>
      <trkpt lat="43.2896" lon="6.05422">
        <ele>603.5</ele>
        <time>2015-01-07T13:44:28Z</time>
      </trkpt>
      <trkpt lat="43.2896" lon="6.05421">
        <ele>603.2</ele>
        <time>2015-01-07T13:44:29Z</time>
      </trkpt>
      <trkpt lat="43.28962" lon="6.05379">
        <ele>598.7</ele>
        <time>2015-01-07T13:45:22Z</time>
      </trkpt>
      <trkpt lat="43.28964" lon="6.05355">
        <ele>590.5</ele>
        <time>2015-01-07T13:45:41Z</time>
      </trkpt>
      <trkpt lat="43.28964" lon="6.05354">
        <ele>590.2</ele>
        <time>2015-01-07T13:45:42Z</time>
      </trkpt>
      <trkpt lat="43.28976" lon="6.0531">
        <ele>587.2</ele>
        <time>2015-01-07T13:46:16Z</time>
      </trkpt>
      <trkpt lat="43.28983" lon="6.05288">
        <ele>588.7</ele>
        <time>2015-01-07T13:46:34Z</time>
      </trkpt>
      <trkpt lat="43.28991" lon="6.05267">
        <ele>588</ele>
        <time>2015-01-07T13:46:49Z</time>
      </trkpt>
      <trkpt lat="43.28991" lon="6.05266">
        <ele>588.2</ele>
        <time>2015-01-07T13:46:50Z</time>
      </trkpt>
      <trkpt lat="43.29" lon="6.0522">
        <ele>584.7</ele>
        <time>2015-01-07T13:47:21Z</time>
      </trkpt>
      <trkpt lat="43.29" lon="6.05195">
        <ele>581.2</ele>
        <time>2015-01-07T13:47:39Z</time>
      </trkpt>
      <trkpt lat="43.29004" lon="6.05172">
        <ele>577</ele>
        <time>2015-01-07T13:47:53Z</time>
      </trkpt>
      <trkpt lat="43.29004" lon="6.0517">
        <ele>576.9</ele>
        <time>2015-01-07T13:47:54Z</time>
      </trkpt>
      <trkpt lat="43.28988" lon="6.05136">
        <ele>570.7</ele>
        <time>2015-01-07T13:48:30Z</time>
      </trkpt>
      <trkpt lat="43.28974" lon="6.05123">
        <ele>575.7</ele>
        <time>2015-01-07T13:48:47Z</time>
      </trkpt>
      <trkpt lat="43.28962" lon="6.05105">
        <ele>579.5</ele>
        <time>2015-01-07T13:49:02Z</time>
      </trkpt>
      <trkpt lat="43.28961" lon="6.05104">
        <ele>580</ele>
        <time>2015-01-07T13:49:03Z</time>
      </trkpt>
      <trkpt lat="43.2895" lon="6.05061">
        <ele>574.9</ele>
        <time>2015-01-07T13:49:35Z</time>
      </trkpt>
      <trkpt lat="43.28947" lon="6.05037">
        <ele>575.4</ele>
        <time>2015-01-07T13:49:50Z</time>
      </trkpt>
      <trkpt lat="43.2894" lon="6.05015">
        <ele>576.5</ele>
        <time>2015-01-07T13:50:06Z</time>
      </trkpt>
      <trkpt lat="43.2894" lon="6.05014">
        <ele>576.7</ele>
        <time>2015-01-07T13:50:07Z</time>
      </trkpt>
      <trkpt lat="43.28908" lon="6.04997">
        <ele>568.7</ele>
        <time>2015-01-07T13:50:41Z</time>
      </trkpt>
      <trkpt lat="43.28892" lon="6.05004">
        <ele>567.9</ele>
        <time>2015-01-07T13:50:58Z</time>
      </trkpt>
      <trkpt lat="43.28875" lon="6.05013">
        <ele>560.7</ele>
        <time>2015-01-07T13:51:18Z</time>
      </trkpt>
      <trkpt lat="43.28874" lon="6.05013">
        <ele>561.4</ele>
        <time>2015-01-07T13:51:19Z</time>
      </trkpt>
      <trkpt lat="43.28854" lon="6.04984">
        <ele>565.7</ele>
        <time>2015-01-07T13:51:54Z</time>
      </trkpt>
      <trkpt lat="43.28851" lon="6.0496">
        <ele>563.2</ele>
        <time>2015-01-07T13:52:10Z</time>
      </trkpt>
      <trkpt lat="43.28844" lon="6.04938">
        <ele>564.7</ele>
        <time>2015-01-07T13:52:25Z</time>
      </trkpt>
      <trkpt lat="43.28844" lon="6.04937">
        <ele>564.7</ele>
        <time>2015-01-07T13:52:26Z</time>
      </trkpt>
      <trkpt lat="43.28819" lon="6.04903">
        <ele>566.9</ele>
        <time>2015-01-07T13:52:55Z</time>
      </trkpt>
      <trkpt lat="43.28804" lon="6.04893">
        <ele>569</ele>
        <time>2015-01-07T13:53:09Z</time>
      </trkpt>
      <trkpt lat="43.28788" lon="6.04884">
        <ele>569.5</ele>
        <time>2015-01-07T13:53:24Z</time>
      </trkpt>
      <trkpt lat="43.28777" lon="6.04866">
        <ele>566.7</ele>
        <time>2015-01-07T13:53:41Z</time>
      </trkpt>
      <trkpt lat="43.28777" lon="6.04864">
        <ele>566.2</ele>
        <time>2015-01-07T13:53:42Z</time>
      </trkpt>
      <trkpt lat="43.28771" lon="6.04819">
        <ele>560</ele>
        <time>2015-01-07T13:54:13Z</time>
      </trkpt>
      <trkpt lat="43.2876" lon="6.04799">
        <ele>558.5</ele>
        <time>2015-01-07T13:54:28Z</time>
      </trkpt>
      <trkpt lat="43.28751" lon="6.04779">
        <ele>561</ele>
        <time>2015-01-07T13:54:44Z</time>
      </trkpt>
      <trkpt lat="43.2875" lon="6.04777">
        <ele>561.4</ele>
        <time>2015-01-07T13:54:45Z</time>
      </trkpt>
      <trkpt lat="43.28726" lon="6.04748">
        <ele>560.5</ele>
        <time>2015-01-07T13:55:12Z</time>
      </trkpt>
      <trkpt lat="43.28711" lon="6.04737">
        <ele>560.5</ele>
        <time>2015-01-07T13:55:26Z</time>
      </trkpt>
      <trkpt lat="43.28695" lon="6.04726">
        <ele>560.5</ele>
        <time>2015-01-07T13:55:41Z</time>
      </trkpt>
      <trkpt lat="43.2868" lon="6.04716">
        <ele>564.7</ele>
        <time>2015-01-07T13:55:56Z</time>
      </trkpt>
      <trkpt lat="43.28679" lon="6.04715">
        <ele>565</ele>
        <time>2015-01-07T13:55:57Z</time>
      </trkpt>
      <trkpt lat="43.28649" lon="6.04694">
        <ele>562.7</ele>
        <time>2015-01-07T13:56:24Z</time>
      </trkpt>
      <trkpt lat="43.28632" lon="6.04685">
        <ele>561.5</ele>
        <time>2015-01-07T13:56:40Z</time>
      </trkpt>
      <trkpt lat="43.28615" lon="6.04682">
        <ele>557</ele>
        <time>2015-01-07T13:56:58Z</time>
      </trkpt>
      <trkpt lat="43.28614" lon="6.04682">
        <ele>556.9</ele>
        <time>2015-01-07T13:56:59Z</time>
      </trkpt>
      <trkpt lat="43.28582" lon="6.0469">
        <ele>557.5</ele>
        <time>2015-01-07T13:57:26Z</time>
      </trkpt>
      <trkpt lat="43.2857" lon="6.04709">
        <ele>555.2</ele>
        <time>2015-01-07T13:57:42Z</time>
      </trkpt>
      <trkpt lat="43.28562" lon="6.0473">
        <ele>553.7</ele>
        <time>2015-01-07T13:57:56Z</time>
      </trkpt>
      <trkpt lat="43.28551" lon="6.04749">
        <ele>553.7</ele>
        <time>2015-01-07T13:58:11Z</time>
      </trkpt>
      <trkpt lat="43.28551" lon="6.04751">
        <ele>553.2</ele>
        <time>2015-01-07T13:58:12Z</time>
      </trkpt>
      <trkpt lat="43.28532" lon="6.04789">
        <ele>551.2</ele>
        <time>2015-01-07T13:58:39Z</time>
      </trkpt>
      <trkpt lat="43.28516" lon="6.04797">
        <ele>553.4</ele>
        <time>2015-01-07T13:58:54Z</time>
      </trkpt>
      <trkpt lat="43.285" lon="6.04786">
        <ele>556</ele>
        <time>2015-01-07T13:59:07Z</time>
      </trkpt>
      <trkpt lat="43.28487" lon="6.04771">
        <ele>559.4</ele>
        <time>2015-01-07T13:59:21Z</time>
      </trkpt>
      <trkpt lat="43.28486" lon="6.04769">
        <ele>559.5</ele>
        <time>2015-01-07T13:59:22Z</time>
      </trkpt>
      <trkpt lat="43.28498" lon="6.04731">
        <ele>557</ele>
        <time>2015-01-07T14:03:00Z</time>
      </trkpt>
      <trkpt lat="43.28499" lon="6.0473">
        <ele>556.7</ele>
        <time>2015-01-07T14:03:01Z</time>
      </trkpt>
      <trkpt lat="43.28512" lon="6.04688">
        <ele>552.7</ele>
        <time>2015-01-07T14:03:32Z</time>
      </trkpt>
      <trkpt lat="43.28525" lon="6.04672">
        <ele>550.9</ele>
        <time>2015-01-07T14:03:49Z</time>
      </trkpt>
      <trkpt lat="43.28536" lon="6.04653">
        <ele>550</ele>
        <time>2015-01-07T14:04:05Z</time>
      </trkpt>
      <trkpt lat="43.28536" lon="6.04651">
        <ele>549.7</ele>
        <time>2015-01-07T14:04:06Z</time>
      </trkpt>
      <trkpt lat="43.28555" lon="6.04613">
        <ele>545.5</ele>
        <time>2015-01-07T14:04:37Z</time>
      </trkpt>
      <trkpt lat="43.28567" lon="6.04595">
        <ele>541.4</ele>
        <time>2015-01-07T14:04:55Z</time>
      </trkpt>
      <trkpt lat="43.28578" lon="6.04577">
        <ele>543.2</ele>
        <time>2015-01-07T14:05:08Z</time>
      </trkpt>
      <trkpt lat="43.28579" lon="6.04576">
        <ele>543.2</ele>
        <time>2015-01-07T14:05:09Z</time>
      </trkpt>
      <trkpt lat="43.28595" lon="6.04536">
        <ele>538.7</ele>
        <time>2015-01-07T14:05:38Z</time>
      </trkpt>
      <trkpt lat="43.286" lon="6.04513">
        <ele>538.2</ele>
        <time>2015-01-07T14:05:53Z</time>
      </trkpt>
      <trkpt lat="43.28601" lon="6.04489">
        <ele>537.4</ele>
        <time>2015-01-07T14:06:08Z</time>
      </trkpt>
      <trkpt lat="43.28602" lon="6.04465">
        <ele>540</ele>
        <time>2015-01-07T14:06:22Z</time>
      </trkpt>
      <trkpt lat="43.28602" lon="6.04464">
        <ele>540</ele>
        <time>2015-01-07T14:06:23Z</time>
      </trkpt>
      <trkpt lat="43.28612" lon="6.04421">
        <ele>538.2</ele>
        <time>2015-01-07T14:06:50Z</time>
      </trkpt>
      <trkpt lat="43.28623" lon="6.04403">
        <ele>536.5</ele>
        <time>2015-01-07T14:07:05Z</time>
      </trkpt>
      <trkpt lat="43.28638" lon="6.0439">
        <ele>536.5</ele>
        <time>2015-01-07T14:07:19Z</time>
      </trkpt>
      <trkpt lat="43.28654" lon="6.04381">
        <ele>535.4</ele>
        <time>2015-01-07T14:07:33Z</time>
      </trkpt>
      <trkpt lat="43.28655" lon="6.0438">
        <ele>535.2</ele>
        <time>2015-01-07T14:07:34Z</time>
      </trkpt>
      <trkpt lat="43.28688" lon="6.04373">
        <ele>533.4</ele>
        <time>2015-01-07T14:08:00Z</time>
      </trkpt>
      <trkpt lat="43.28706" lon="6.04373">
        <ele>533.5</ele>
        <time>2015-01-07T14:08:13Z</time>
      </trkpt>
      <trkpt lat="43.28724" lon="6.04369">
        <ele>530.7</ele>
        <time>2015-01-07T14:08:31Z</time>
      </trkpt>
      <trkpt lat="43.28741" lon="6.04363">
        <ele>529.7</ele>
        <time>2015-01-07T14:08:45Z</time>
      </trkpt>
      <trkpt lat="43.28742" lon="6.04363">
        <ele>529.7</ele>
        <time>2015-01-07T14:08:46Z</time>
      </trkpt>
      <trkpt lat="43.28772" lon="6.04344">
        <ele>529.9</ele>
        <time>2015-01-07T14:09:11Z</time>
      </trkpt>
      <trkpt lat="43.28785" lon="6.04327">
        <ele>530</ele>
        <time>2015-01-07T14:09:28Z</time>
      </trkpt>
      <trkpt lat="43.28799" lon="6.04311">
        <ele>530.2</ele>
        <time>2015-01-07T14:09:42Z</time>
      </trkpt>
      <trkpt lat="43.28813" lon="6.04296">
        <ele>529.7</ele>
        <time>2015-01-07T14:09:56Z</time>
      </trkpt>
      <trkpt lat="43.28813" lon="6.04295">
        <ele>529.5</ele>
        <time>2015-01-07T14:09:57Z</time>
      </trkpt>
      <trkpt lat="43.28827" lon="6.04253">
        <ele>526.7</ele>
        <time>2015-01-07T14:10:26Z</time>
      </trkpt>
      <trkpt lat="43.2883" lon="6.0423">
        <ele>525.9</ele>
        <time>2015-01-07T14:10:41Z</time>
      </trkpt>
      <trkpt lat="43.28842" lon="6.04213">
        <ele>525.7</ele>
        <time>2015-01-07T14:10:56Z</time>
      </trkpt>
      <trkpt lat="43.2886" lon="6.04211">
        <ele>524.2</ele>
        <time>2015-01-07T14:11:09Z</time>
      </trkpt>
      <trkpt lat="43.28861" lon="6.04211">
        <ele>523.9</ele>
        <time>2015-01-07T14:11:10Z</time>
      </trkpt>
      <trkpt lat="43.28892" lon="6.04224">
        <ele>523.2</ele>
        <time>2015-01-07T14:11:35Z</time>
      </trkpt>
      <trkpt lat="43.28908" lon="6.04233">
        <ele>523.7</ele>
        <time>2015-01-07T14:11:48Z</time>
      </trkpt>
      <trkpt lat="43.28924" lon="6.04242">
        <ele>523.9</ele>
        <time>2015-01-07T14:12:01Z</time>
      </trkpt>
      <trkpt lat="43.2894" lon="6.04253">
        <ele>524.2</ele>
        <time>2015-01-07T14:12:15Z</time>
      </trkpt>
      <trkpt lat="43.28941" lon="6.04253">
        <ele>524.4</ele>
        <time>2015-01-07T14:12:16Z</time>
      </trkpt>
      <trkpt lat="43.28972" lon="6.04253">
        <ele>521.7</ele>
        <time>2015-01-07T14:12:51Z</time>
      </trkpt>
      <trkpt lat="43.28983" lon="6.04234">
        <ele>521.5</ele>
        <time>2015-01-07T14:13:05Z</time>
      </trkpt>
      <trkpt lat="43.28997" lon="6.0422">
        <ele>521.9</ele>
        <time>2015-01-07T14:13:19Z</time>
      </trkpt>
      <trkpt lat="43.28998" lon="6.04219">
        <ele>521.9</ele>
        <time>2015-01-07T14:13:20Z</time>
      </trkpt>
      <trkpt lat="43.29023" lon="6.04186">
        <ele>516.2</ele>
        <time>2015-01-07T14:13:51Z</time>
      </trkpt>
      <trkpt lat="43.29037" lon="6.04174">
        <ele>519.5</ele>
        <time>2015-01-07T14:14:03Z</time>
      </trkpt>
      <trkpt lat="43.29051" lon="6.04162">
        <ele>518.7</ele>
        <time>2015-01-07T14:14:18Z</time>
      </trkpt>
      <trkpt lat="43.29068" lon="6.04158">
        <ele>515.5</ele>
        <time>2015-01-07T14:14:33Z</time>
      </trkpt>
      <trkpt lat="43.29069" lon="6.04158">
        <ele>515.2</ele>
        <time>2015-01-07T14:14:34Z</time>
      </trkpt>
      <trkpt lat="43.291" lon="6.04144">
        <ele>514.4</ele>
        <time>2015-01-07T14:14:59Z</time>
      </trkpt>
      <trkpt lat="43.29114" lon="6.0413">
        <ele>512.2</ele>
        <time>2015-01-07T14:15:12Z</time>
      </trkpt>
      <trkpt lat="43.29124" lon="6.04112">
        <ele>512.9</ele>
        <time>2015-01-07T14:15:25Z</time>
      </trkpt>
      <trkpt lat="43.29133" lon="6.04091">
        <ele>510.5</ele>
        <time>2015-01-07T14:15:40Z</time>
      </trkpt>
      <trkpt lat="43.29134" lon="6.0409">
        <ele>510.3</ele>
        <time>2015-01-07T14:15:41Z</time>
      </trkpt>
      <trkpt lat="43.29163" lon="6.04067">
        <ele>511.2</ele>
        <time>2015-01-07T14:16:07Z</time>
      </trkpt>
      <trkpt lat="43.2918" lon="6.04069">
        <ele>509.6</ele>
        <time>2015-01-07T14:16:19Z</time>
      </trkpt>
      <trkpt lat="43.29196" lon="6.04078">
        <ele>507.7</ele>
        <time>2015-01-07T14:16:33Z</time>
      </trkpt>
      <trkpt lat="43.29209" lon="6.04091">
        <ele>507.8</ele>
        <time>2015-01-07T14:16:46Z</time>
      </trkpt>
      <trkpt lat="43.2921" lon="6.04092">
        <ele>507.7</ele>
        <time>2015-01-07T14:16:47Z</time>
      </trkpt>
      <trkpt lat="43.2924" lon="6.04109">
        <ele>506.3</ele>
        <time>2015-01-07T14:17:16Z</time>
      </trkpt>
      <trkpt lat="43.29257" lon="6.041">
        <ele>502.6</ele>
        <time>2015-01-07T14:17:31Z</time>
      </trkpt>
      <trkpt lat="43.29272" lon="6.04089">
        <ele>501.1</ele>
        <time>2015-01-07T14:17:46Z</time>
      </trkpt>
      <trkpt lat="43.29287" lon="6.04077">
        <ele>500.2</ele>
        <time>2015-01-07T14:18:01Z</time>
      </trkpt>
      <trkpt lat="43.29288" lon="6.04076">
        <ele>500.5</ele>
        <time>2015-01-07T14:18:02Z</time>
      </trkpt>
      <trkpt lat="43.29314" lon="6.04047">
        <ele>502.2</ele>
        <time>2015-01-07T14:18:27Z</time>
      </trkpt>
      <trkpt lat="43.29326" lon="6.04031">
        <ele>503.7</ele>
        <time>2015-01-07T14:18:40Z</time>
      </trkpt>
      <trkpt lat="43.29338" lon="6.04014">
        <ele>502.6</ele>
        <time>2015-01-07T14:18:54Z</time>
      </trkpt>
      <trkpt lat="43.29353" lon="6.04">
        <ele>500.7</ele>
        <time>2015-01-07T14:19:08Z</time>
      </trkpt>
      <trkpt lat="43.29354" lon="6.03999">
        <ele>500.7</ele>
        <time>2015-01-07T14:19:09Z</time>
      </trkpt>
      <trkpt lat="43.29385" lon="6.03981">
        <ele>491.6</ele>
        <time>2015-01-07T14:19:38Z</time>
      </trkpt>
      <trkpt lat="43.29401" lon="6.03973">
        <ele>490.6</ele>
        <time>2015-01-07T14:19:53Z</time>
      </trkpt>
      <trkpt lat="43.29418" lon="6.03967">
        <ele>489.3</ele>
        <time>2015-01-07T14:20:08Z</time>
      </trkpt>
      <trkpt lat="43.29434" lon="6.0396">
        <ele>490.3</ele>
        <time>2015-01-07T14:20:22Z</time>
      </trkpt>
      <trkpt lat="43.29436" lon="6.03959">
        <ele>490.7</ele>
        <time>2015-01-07T14:20:23Z</time>
      </trkpt>
      <trkpt lat="43.29464" lon="6.03933">
        <ele>494.7</ele>
        <time>2015-01-07T14:20:48Z</time>
      </trkpt>
      <trkpt lat="43.29467" lon="6.0391">
        <ele>493.2</ele>
        <time>2015-01-07T14:21:03Z</time>
      </trkpt>
      <trkpt lat="43.29466" lon="6.03886">
        <ele>491.2</ele>
        <time>2015-01-07T14:21:17Z</time>
      </trkpt>
      <trkpt lat="43.29465" lon="6.03862">
        <ele>488.3</ele>
        <time>2015-01-07T14:21:31Z</time>
      </trkpt>
      <trkpt lat="43.29465" lon="6.0386">
        <ele>488.5</ele>
        <time>2015-01-07T14:21:32Z</time>
      </trkpt>
      <trkpt lat="43.29485" lon="6.03824">
        <ele>486.1</ele>
        <time>2015-01-07T14:22:01Z</time>
      </trkpt>
      <trkpt lat="43.29502" lon="6.03815">
        <ele>486.7</ele>
        <time>2015-01-07T14:22:17Z</time>
      </trkpt>
      <trkpt lat="43.29516" lon="6.0383">
        <ele>489</ele>
        <time>2015-01-07T14:22:42Z</time>
      </trkpt>
      <trkpt lat="43.29516" lon="6.0383">
        <ele>489.1</ele>
        <time>2015-01-07T14:22:43Z</time>
      </trkpt>
      <trkpt lat="43.29511" lon="6.03806">
        <ele>489.3</ele>
        <time>2015-01-07T14:24:04Z</time>
      </trkpt>
      <trkpt lat="43.29514" lon="6.03759">
        <ele>485.5</ele>
        <time>2015-01-07T14:25:18Z</time>
      </trkpt>
      <trkpt lat="43.29513" lon="6.03757">
        <ele>484.5</ele>
        <time>2015-01-07T14:25:19Z</time>
      </trkpt>
      <trkpt lat="43.29512" lon="6.0371">
        <ele>482.1</ele>
        <time>2015-01-07T14:25:48Z</time>
      </trkpt>
      <trkpt lat="43.29511" lon="6.03686">
        <ele>481.7</ele>
        <time>2015-01-07T14:26:02Z</time>
      </trkpt>
      <trkpt lat="43.29508" lon="6.03663">
        <ele>481.6</ele>
        <time>2015-01-07T14:26:14Z</time>
      </trkpt>
      <trkpt lat="43.29501" lon="6.03641">
        <ele>481</ele>
        <time>2015-01-07T14:26:27Z</time>
      </trkpt>
      <trkpt lat="43.29501" lon="6.0364">
        <ele>480.8</ele>
        <time>2015-01-07T14:26:28Z</time>
      </trkpt>
      <trkpt lat="43.29491" lon="6.03597">
        <ele>478</ele>
        <time>2015-01-07T14:26:54Z</time>
      </trkpt>
      <trkpt lat="43.29485" lon="6.03574">
        <ele>475.7</ele>
        <time>2015-01-07T14:27:07Z</time>
      </trkpt>
      <trkpt lat="43.29477" lon="6.03553">
        <ele>473.3</ele>
        <time>2015-01-07T14:27:20Z</time>
      </trkpt>
      <trkpt lat="43.29469" lon="6.03531">
        <ele>472.7</ele>
        <time>2015-01-07T14:27:33Z</time>
      </trkpt>
      <trkpt lat="43.29469" lon="6.03529">
        <ele>472.6</ele>
        <time>2015-01-07T14:27:34Z</time>
      </trkpt>
      <trkpt lat="43.29456" lon="6.03486">
        <ele>474.5</ele>
        <time>2015-01-07T14:27:59Z</time>
      </trkpt>
      <trkpt lat="43.2946" lon="6.03464">
        <ele>474.2</ele>
        <time>2015-01-07T14:28:13Z</time>
      </trkpt>
      <trkpt lat="43.29472" lon="6.03445">
        <ele>477.1</ele>
        <time>2015-01-07T14:28:27Z</time>
      </trkpt>
      <trkpt lat="43.29485" lon="6.03428">
        <ele>479.3</ele>
        <time>2015-01-07T14:28:41Z</time>
      </trkpt>
      <trkpt lat="43.29486" lon="6.03427">
        <ele>479.1</ele>
        <time>2015-01-07T14:28:42Z</time>
      </trkpt>
      <trkpt lat="43.29486" lon="6.03382">
        <ele>473.8</ele>
        <time>2015-01-07T14:29:13Z</time>
      </trkpt>
      <trkpt lat="43.29483" lon="6.03358">
        <ele>474.2</ele>
        <time>2015-01-07T14:29:27Z</time>
      </trkpt>
      <trkpt lat="43.29486" lon="6.03335">
        <ele>473.7</ele>
        <time>2015-01-07T14:29:41Z</time>
      </trkpt>
      <trkpt lat="43.29494" lon="6.03314">
        <ele>474.5</ele>
        <time>2015-01-07T14:29:55Z</time>
      </trkpt>
      <trkpt lat="43.29495" lon="6.03313">
        <ele>474.3</ele>
        <time>2015-01-07T14:29:56Z</time>
      </trkpt>
      <trkpt lat="43.29513" lon="6.03276">
        <ele>474.5</ele>
        <time>2015-01-07T14:30:23Z</time>
      </trkpt>
      <trkpt lat="43.29521" lon="6.03255">
        <ele>472.3</ele>
        <time>2015-01-07T14:30:38Z</time>
      </trkpt>
      <trkpt lat="43.29527" lon="6.03233">
        <ele>473.1</ele>
        <time>2015-01-07T14:30:52Z</time>
      </trkpt>
      <trkpt lat="43.29527" lon="6.03209">
        <ele>475</ele>
        <time>2015-01-07T14:31:08Z</time>
      </trkpt>
      <trkpt lat="43.29527" lon="6.03207">
        <ele>474.7</ele>
        <time>2015-01-07T14:31:09Z</time>
      </trkpt>
      <trkpt lat="43.29508" lon="6.0317">
        <ele>473.1</ele>
        <time>2015-01-07T14:31:42Z</time>
      </trkpt>
      <trkpt lat="43.29491" lon="6.03162">
        <ele>470.7</ele>
        <time>2015-01-07T14:31:58Z</time>
      </trkpt>
      <trkpt lat="43.29477" lon="6.03147">
        <ele>472.7</ele>
        <time>2015-01-07T14:32:14Z</time>
      </trkpt>
      <trkpt lat="43.29477" lon="6.03146">
        <ele>472.7</ele>
        <time>2015-01-07T14:32:15Z</time>
      </trkpt>
      <trkpt lat="43.29491" lon="6.03105">
        <ele>476.3</ele>
        <time>2015-01-07T14:32:45Z</time>
      </trkpt>
      <trkpt lat="43.29506" lon="6.03093">
        <ele>472.8</ele>
        <time>2015-01-07T14:33:00Z</time>
      </trkpt>
      <trkpt lat="43.2952" lon="6.0308">
        <ele>471.2</ele>
        <time>2015-01-07T14:33:14Z</time>
      </trkpt>
      <trkpt lat="43.29533" lon="6.03065">
        <ele>470.5</ele>
        <time>2015-01-07T14:33:29Z</time>
      </trkpt>
      <trkpt lat="43.29535" lon="6.03064">
        <ele>470.6</ele>
        <time>2015-01-07T14:33:30Z</time>
      </trkpt>
      <trkpt lat="43.29563" lon="6.03041">
        <ele>469.6</ele>
        <time>2015-01-07T14:33:56Z</time>
      </trkpt>
      <trkpt lat="43.29578" lon="6.03028">
        <ele>469.5</ele>
        <time>2015-01-07T14:34:10Z</time>
      </trkpt>
      <trkpt lat="43.29592" lon="6.03013">
        <ele>469</ele>
        <time>2015-01-07T14:34:26Z</time>
      </trkpt>
      <trkpt lat="43.29606" lon="6.02999">
        <ele>470.3</ele>
        <time>2015-01-07T14:34:39Z</time>
      </trkpt>
      <trkpt lat="43.29607" lon="6.02998">
        <ele>470.5</ele>
        <time>2015-01-07T14:34:40Z</time>
      </trkpt>
      <trkpt lat="43.29628" lon="6.02962">
        <ele>472.7</ele>
        <time>2015-01-07T14:35:07Z</time>
      </trkpt>
      <trkpt lat="43.29637" lon="6.02942">
        <ele>472.2</ele>
        <time>2015-01-07T14:35:21Z</time>
      </trkpt>
      <trkpt lat="43.29646" lon="6.02921">
        <ele>473.8</ele>
        <time>2015-01-07T14:35:34Z</time>
      </trkpt>
      <trkpt lat="43.29652" lon="6.02899">
        <ele>475.2</ele>
        <time>2015-01-07T14:35:48Z</time>
      </trkpt>
      <trkpt lat="43.29652" lon="6.02898">
        <ele>475.2</ele>
        <time>2015-01-07T14:35:49Z</time>
      </trkpt>
      <trkpt lat="43.29659" lon="6.02853">
        <ele>477</ele>
        <time>2015-01-07T14:36:16Z</time>
      </trkpt>
      <trkpt lat="43.29662" lon="6.0283">
        <ele>476.7</ele>
        <time>2015-01-07T14:36:29Z</time>
      </trkpt>
      <trkpt lat="43.29666" lon="6.02807">
        <ele>474.8</ele>
        <time>2015-01-07T14:36:43Z</time>
      </trkpt>
      <trkpt lat="43.29673" lon="6.02786">
        <ele>474</ele>
        <time>2015-01-07T14:36:57Z</time>
      </trkpt>
      <trkpt lat="43.29673" lon="6.02785">
        <ele>473.7</ele>
        <time>2015-01-07T14:36:58Z</time>
      </trkpt>
      <trkpt lat="43.29684" lon="6.02741">
        <ele>473.3</ele>
        <time>2015-01-07T14:37:26Z</time>
      </trkpt>
      <trkpt lat="43.29677" lon="6.02719">
        <ele>472.2</ele>
        <time>2015-01-07T14:37:40Z</time>
      </trkpt>
      <trkpt lat="43.29683" lon="6.02696">
        <ele>470.6</ele>
        <time>2015-01-07T14:37:55Z</time>
      </trkpt>
      <trkpt lat="43.29687" lon="6.02672">
        <ele>468.7</ele>
        <time>2015-01-07T14:38:11Z</time>
      </trkpt>
      <trkpt lat="43.29687" lon="6.0267">
        <ele>469.2</ele>
        <time>2015-01-07T14:38:12Z</time>
      </trkpt>
      <trkpt lat="43.29671" lon="6.02631">
        <ele>470.7</ele>
        <time>2015-01-07T14:38:38Z</time>
      </trkpt>
      <trkpt lat="43.29658" lon="6.02613">
        <ele>470.7</ele>
        <time>2015-01-07T14:38:52Z</time>
      </trkpt>
      <trkpt lat="43.29644" lon="6.026">
        <ele>471.8</ele>
        <time>2015-01-07T14:39:06Z</time>
      </trkpt>
      <trkpt lat="43.29626" lon="6.02598">
        <ele>471.6</ele>
        <time>2015-01-07T14:39:21Z</time>
      </trkpt>
      <trkpt lat="43.29624" lon="6.02598">
        <ele>471.3</ele>
        <time>2015-01-07T14:39:22Z</time>
      </trkpt>
      <trkpt lat="43.29593" lon="6.0259">
        <ele>470.2</ele>
        <time>2015-01-07T14:39:49Z</time>
      </trkpt>
      <trkpt lat="43.29588" lon="6.02567">
        <ele>468.7</ele>
        <time>2015-01-07T14:40:05Z</time>
      </trkpt>
      <trkpt lat="43.2959" lon="6.02544">
        <ele>467.3</ele>
        <time>2015-01-07T14:40:21Z</time>
      </trkpt>
      <trkpt lat="43.29597" lon="6.02522">
        <ele>469.2</ele>
        <time>2015-01-07T14:40:35Z</time>
      </trkpt>
      <trkpt lat="43.29598" lon="6.02521">
        <ele>469.2</ele>
        <time>2015-01-07T14:40:36Z</time>
      </trkpt>
      <trkpt lat="43.29621" lon="6.0249">
        <ele>470.1</ele>
        <time>2015-01-07T14:41:03Z</time>
      </trkpt>
      <trkpt lat="43.29635" lon="6.02476">
        <ele>469.8</ele>
        <time>2015-01-07T14:41:17Z</time>
      </trkpt>
      <trkpt lat="43.29652" lon="6.0247">
        <ele>467.7</ele>
        <time>2015-01-07T14:41:32Z</time>
      </trkpt>
      <trkpt lat="43.29669" lon="6.02471">
        <ele>466.7</ele>
        <time>2015-01-07T14:41:47Z</time>
      </trkpt>
      <trkpt lat="43.2967" lon="6.02471">
        <ele>467</ele>
        <time>2015-01-07T14:41:48Z</time>
      </trkpt>
      <trkpt lat="43.29704" lon="6.02478">
        <ele>469</ele>
        <time>2015-01-07T14:42:25Z</time>
      </trkpt>
      <trkpt lat="43.29719" lon="6.02492">
        <ele>472.3</ele>
        <time>2015-01-07T14:46:02Z</time>
      </trkpt>
      <trkpt lat="43.29719" lon="6.02493">
        <ele>472.2</ele>
        <time>2015-01-07T14:46:03Z</time>
      </trkpt>
      <trkpt lat="43.29746" lon="6.0252">
        <ele>468.8</ele>
        <time>2015-01-07T14:46:32Z</time>
      </trkpt>
      <trkpt lat="43.29764" lon="6.02524">
        <ele>466.2</ele>
        <time>2015-01-07T14:46:50Z</time>
      </trkpt>
      <trkpt lat="43.29781" lon="6.02525">
        <ele>464.7</ele>
        <time>2015-01-07T14:47:06Z</time>
      </trkpt>
      <trkpt lat="43.29782" lon="6.02524">
        <ele>464.6</ele>
        <time>2015-01-07T14:47:07Z</time>
      </trkpt>
      <trkpt lat="43.29816" lon="6.02528">
        <ele>460</ele>
        <time>2015-01-07T14:47:37Z</time>
      </trkpt>
      <trkpt lat="43.29832" lon="6.0253">
        <ele>458.2</ele>
        <time>2015-01-07T14:47:51Z</time>
      </trkpt>
      <trkpt lat="43.29849" lon="6.0253">
        <ele>456.8</ele>
        <time>2015-01-07T14:48:04Z</time>
      </trkpt>
      <trkpt lat="43.29866" lon="6.02528">
        <ele>455.7</ele>
        <time>2015-01-07T14:48:17Z</time>
      </trkpt>
      <trkpt lat="43.29867" lon="6.02528">
        <ele>455.6</ele>
        <time>2015-01-07T14:48:18Z</time>
      </trkpt>
      <trkpt lat="43.29898" lon="6.0251">
        <ele>453.3</ele>
        <time>2015-01-07T14:48:44Z</time>
      </trkpt>
      <trkpt lat="43.29913" lon="6.02496">
        <ele>455.3</ele>
        <time>2015-01-07T14:48:56Z</time>
      </trkpt>
      <trkpt lat="43.29926" lon="6.0248">
        <ele>455.7</ele>
        <time>2015-01-07T14:49:09Z</time>
      </trkpt>
      <trkpt lat="43.29936" lon="6.02461">
        <ele>456.3</ele>
        <time>2015-01-07T14:49:22Z</time>
      </trkpt>
      <trkpt lat="43.29936" lon="6.02459">
        <ele>456.3</ele>
        <time>2015-01-07T14:49:23Z</time>
      </trkpt>
      <trkpt lat="43.29953" lon="6.02418">
        <ele>453.7</ele>
        <time>2015-01-07T14:49:48Z</time>
      </trkpt>
      <trkpt lat="43.29966" lon="6.02403">
        <ele>450.2</ele>
        <time>2015-01-07T14:50:01Z</time>
      </trkpt>
      <trkpt lat="43.29983" lon="6.02397">
        <ele>447.1</ele>
        <time>2015-01-07T14:50:15Z</time>
      </trkpt>
      <trkpt lat="43.3" lon="6.0239">
        <ele>442.7</ele>
        <time>2015-01-07T14:50:30Z</time>
      </trkpt>
      <trkpt lat="43.30001" lon="6.02389">
        <ele>442.3</ele>
        <time>2015-01-07T14:50:31Z</time>
      </trkpt>
      <trkpt lat="43.30032" lon="6.02374">
        <ele>439.8</ele>
        <time>2015-01-07T14:50:58Z</time>
      </trkpt>
      <trkpt lat="43.30049" lon="6.02364">
        <ele>437</ele>
        <time>2015-01-07T14:51:13Z</time>
      </trkpt>
      <trkpt lat="43.30064" lon="6.02356">
        <ele>438.2</ele>
        <time>2015-01-07T14:51:26Z</time>
      </trkpt>
      <trkpt lat="43.30079" lon="6.02346">
        <ele>437.7</ele>
        <time>2015-01-07T14:51:38Z</time>
      </trkpt>
      <trkpt lat="43.30081" lon="6.02345">
        <ele>437.6</ele>
        <time>2015-01-07T14:51:39Z</time>
      </trkpt>
      <trkpt lat="43.3009" lon="6.02314">
        <ele>438.8</ele>
        <time>2015-01-07T14:52:22Z</time>
      </trkpt>
      <trkpt lat="43.30079" lon="6.02295">
        <ele>435.6</ele>
        <time>2015-01-07T14:52:37Z</time>
      </trkpt>
      <trkpt lat="43.30086" lon="6.02273">
        <ele>430.7</ele>
        <time>2015-01-07T14:52:51Z</time>
      </trkpt>
      <trkpt lat="43.30087" lon="6.02272">
        <ele>430.2</ele>
        <time>2015-01-07T14:52:52Z</time>
      </trkpt>
      <trkpt lat="43.30107" lon="6.02235">
        <ele>424.6</ele>
        <time>2015-01-07T14:53:18Z</time>
      </trkpt>
      <trkpt lat="43.30117" lon="6.02215">
        <ele>422.7</ele>
        <time>2015-01-07T14:53:32Z</time>
      </trkpt>
      <trkpt lat="43.30128" lon="6.02196">
        <ele>420.7</ele>
        <time>2015-01-07T14:53:46Z</time>
      </trkpt>
      <trkpt lat="43.30139" lon="6.02179">
        <ele>419.6</ele>
        <time>2015-01-07T14:53:59Z</time>
      </trkpt>
      <trkpt lat="43.30139" lon="6.02177">
        <ele>419.6</ele>
        <time>2015-01-07T14:54:00Z</time>
      </trkpt>
      <trkpt lat="43.30163" lon="6.02146">
        <ele>419.1</ele>
        <time>2015-01-07T14:54:25Z</time>
      </trkpt>
      <trkpt lat="43.30174" lon="6.02128">
        <ele>418.7</ele>
        <time>2015-01-07T14:54:38Z</time>
      </trkpt>
      <trkpt lat="43.30182" lon="6.02107">
        <ele>417.8</ele>
        <time>2015-01-07T14:54:52Z</time>
      </trkpt>
      <trkpt lat="43.30187" lon="6.02084">
        <ele>417.2</ele>
        <time>2015-01-07T14:55:07Z</time>
      </trkpt>
      <trkpt lat="43.30188" lon="6.02083">
        <ele>417.1</ele>
        <time>2015-01-07T14:55:08Z</time>
      </trkpt>
      <trkpt lat="43.30192" lon="6.02036">
        <ele>410.7</ele>
        <time>2015-01-07T14:55:34Z</time>
      </trkpt>
      <trkpt lat="43.30194" lon="6.02013">
        <ele>407.1</ele>
        <time>2015-01-07T14:55:47Z</time>
      </trkpt>
      <trkpt lat="43.30201" lon="6.01991">
        <ele>406.2</ele>
        <time>2015-01-07T14:56:00Z</time>
      </trkpt>
      <trkpt lat="43.30212" lon="6.01972">
        <ele>401.8</ele>
        <time>2015-01-07T14:56:14Z</time>
      </trkpt>
      <trkpt lat="43.30212" lon="6.0197">
        <ele>401.5</ele>
        <time>2015-01-07T14:56:15Z</time>
      </trkpt>
      <trkpt lat="43.30227" lon="6.01929">
        <ele>402.2</ele>
        <time>2015-01-07T14:56:43Z</time>
      </trkpt>
      <trkpt lat="43.30229" lon="6.01905">
        <ele>398.1</ele>
        <time>2015-01-07T14:57:00Z</time>
      </trkpt>
      <trkpt lat="43.30245" lon="6.01917">
        <ele>399.3</ele>
        <time>2015-01-07T14:57:22Z</time>
      </trkpt>
      <trkpt lat="43.30245" lon="6.01917">
        <ele>400.1</ele>
        <time>2015-01-07T14:57:23Z</time>
      </trkpt>
      <trkpt lat="43.30262" lon="6.01909">
        <ele>395.2</ele>
        <time>2015-01-07T15:00:19Z</time>
      </trkpt>
      <trkpt lat="43.30296" lon="6.019">
        <ele>384.8</ele>
        <time>2015-01-07T15:01:12Z</time>
      </trkpt>
      <trkpt lat="43.30312" lon="6.01895">
        <ele>381.2</ele>
        <time>2015-01-07T15:01:34Z</time>
      </trkpt>
      <trkpt lat="43.30313" lon="6.01895">
        <ele>381.3</ele>
        <time>2015-01-07T15:01:35Z</time>
      </trkpt>
      <trkpt lat="43.30343" lon="6.0187">
        <ele>370.6</ele>
        <time>2015-01-07T15:02:15Z</time>
      </trkpt>
      <trkpt lat="43.30356" lon="6.01853">
        <ele>370.3</ele>
        <time>2015-01-07T15:02:35Z</time>
      </trkpt>
      <trkpt lat="43.30356" lon="6.01852">
        <ele>370.3</ele>
        <time>2015-01-07T15:02:36Z</time>
      </trkpt>
      <trkpt lat="43.30375" lon="6.01813">
        <ele>363.7</ele>
        <time>2015-01-07T15:03:11Z</time>
      </trkpt>
      <trkpt lat="43.30384" lon="6.01793">
        <ele>359.7</ele>
        <time>2015-01-07T15:03:27Z</time>
      </trkpt>
      <trkpt lat="43.30392" lon="6.01772">
        <ele>359.1</ele>
        <time>2015-01-07T15:03:41Z</time>
      </trkpt>
      <trkpt lat="43.30393" lon="6.01771">
        <ele>359.3</ele>
        <time>2015-01-07T15:03:42Z</time>
      </trkpt>
      <trkpt lat="43.30415" lon="6.01736">
        <ele>359.6</ele>
        <time>2015-01-07T15:04:08Z</time>
      </trkpt>
      <trkpt lat="43.30428" lon="6.01723">
        <ele>358.5</ele>
        <time>2015-01-07T15:04:20Z</time>
      </trkpt>
      <trkpt lat="43.3044" lon="6.01706">
        <ele>356.2</ele>
        <time>2015-01-07T15:04:34Z</time>
      </trkpt>
      <trkpt lat="43.30453" lon="6.01689">
        <ele>351.7</ele>
        <time>2015-01-07T15:04:50Z</time>
      </trkpt>
      <trkpt lat="43.30454" lon="6.01688">
        <ele>351.7</ele>
        <time>2015-01-07T15:04:51Z</time>
      </trkpt>
      <trkpt lat="43.30474" lon="6.01651">
        <ele>350.2</ele>
        <time>2015-01-07T15:05:19Z</time>
      </trkpt>
      <trkpt lat="43.30485" lon="6.01631">
        <ele>346.2</ele>
        <time>2015-01-07T15:05:34Z</time>
      </trkpt>
      <trkpt lat="43.30497" lon="6.01614">
        <ele>344.8</ele>
        <time>2015-01-07T15:05:48Z</time>
      </trkpt>
      <trkpt lat="43.3051" lon="6.01597">
        <ele>343.3</ele>
        <time>2015-01-07T15:06:03Z</time>
      </trkpt>
      <trkpt lat="43.3051" lon="6.01596">
        <ele>343.2</ele>
        <time>2015-01-07T15:06:04Z</time>
      </trkpt>
      <trkpt lat="43.30536" lon="6.01563">
        <ele>339.7</ele>
        <time>2015-01-07T15:06:33Z</time>
      </trkpt>
      <trkpt lat="43.30548" lon="6.01547">
        <ele>342.6</ele>
        <time>2015-01-07T15:06:46Z</time>
      </trkpt>
      <trkpt lat="43.30564" lon="6.01537">
        <ele>345.2</ele>
        <time>2015-01-07T15:06:59Z</time>
      </trkpt>
      <trkpt lat="43.30581" lon="6.01528">
        <ele>344.6</ele>
        <time>2015-01-07T15:07:15Z</time>
      </trkpt>
      <trkpt lat="43.30582" lon="6.01528">
        <ele>344.6</ele>
        <time>2015-01-07T15:07:16Z</time>
      </trkpt>
      <trkpt lat="43.30613" lon="6.01512">
        <ele>340</ele>
        <time>2015-01-07T15:07:39Z</time>
      </trkpt>
      <trkpt lat="43.30629" lon="6.01504">
        <ele>340.1</ele>
        <time>2015-01-07T15:07:52Z</time>
      </trkpt>
      <trkpt lat="43.30645" lon="6.01494">
        <ele>338.6</ele>
        <time>2015-01-07T15:08:05Z</time>
      </trkpt>
      <trkpt lat="43.30661" lon="6.01486">
        <ele>335.3</ele>
        <time>2015-01-07T15:08:17Z</time>
      </trkpt>
      <trkpt lat="43.30662" lon="6.01486">
        <ele>335.2</ele>
        <time>2015-01-07T15:08:18Z</time>
      </trkpt>
      <trkpt lat="43.30692" lon="6.01467">
        <ele>335.1</ele>
        <time>2015-01-07T15:08:42Z</time>
      </trkpt>
      <trkpt lat="43.30708" lon="6.01456">
        <ele>336</ele>
        <time>2015-01-07T15:08:56Z</time>
      </trkpt>
      <trkpt lat="43.30723" lon="6.01445">
        <ele>339.2</ele>
        <time>2015-01-07T15:09:08Z</time>
      </trkpt>
      <trkpt lat="43.30739" lon="6.01435">
        <ele>337.8</ele>
        <time>2015-01-07T15:09:23Z</time>
      </trkpt>
      <trkpt lat="43.3074" lon="6.01435">
        <ele>337.6</ele>
        <time>2015-01-07T15:09:24Z</time>
      </trkpt>
      <trkpt lat="43.30769" lon="6.01413">
        <ele>333.3</ele>
        <time>2015-01-07T15:09:54Z</time>
      </trkpt>
      <trkpt lat="43.30784" lon="6.01402">
        <ele>334.7</ele>
        <time>2015-01-07T15:10:07Z</time>
      </trkpt>
      <trkpt lat="43.30799" lon="6.01389">
        <ele>335.7</ele>
        <time>2015-01-07T15:10:21Z</time>
      </trkpt>
      <trkpt lat="43.30813" lon="6.01378">
        <ele>335</ele>
        <time>2015-01-07T15:10:34Z</time>
      </trkpt>
      <trkpt lat="43.30814" lon="6.01377">
        <ele>335.2</ele>
        <time>2015-01-07T15:10:35Z</time>
      </trkpt>
      <trkpt lat="43.30846" lon="6.01362">
        <ele>335.7</ele>
        <time>2015-01-07T15:11:02Z</time>
      </trkpt>
      <trkpt lat="43.30862" lon="6.01357">
        <ele>337.2</ele>
        <time>2015-01-07T15:11:15Z</time>
      </trkpt>
      <trkpt lat="43.30879" lon="6.01351">
        <ele>335.1</ele>
        <time>2015-01-07T15:11:29Z</time>
      </trkpt>
      <trkpt lat="43.30897" lon="6.01345">
        <ele>337</ele>
        <time>2015-01-07T15:11:43Z</time>
      </trkpt>
      <trkpt lat="43.30898" lon="6.01345">
        <ele>337</ele>
        <time>2015-01-07T15:11:44Z</time>
      </trkpt>
    </trkseg>
  </trk>
  <trk>
    <name><![CDATA[Néoules Barre de Cuers_3]]></name>
    <trkseg>
      <trkpt lat="43.30932" lon="6.01302">
        <ele>357</ele>
        <time>2015-01-07T15:13:41Z</time>
      </trkpt>
      <trkpt lat="43.30934" lon="6.01302">
        <ele>355.3</ele>
        <time>2015-01-07T15:13:41Z</time>
      </trkpt>
    </trkseg>
  </trk>
</gpx>